GFSNE_250_spd_027.txt.gz
Wind_Speed
70 71 73 75 77 79 80 83 84 85 89 95 97 98 100 104 108 112 116 120 123 122 121 118 113 116 120 124 130 133 132 129 124 120 118 115 111 109
73 74 77 79 81 82 85 88 90 91 89 95 98 102 106 109 114 119 120 117 118 115 114 118 121 125 129 131 131 125 117 111 108 104 102 99 98 97
75 77 80 82 83 86 88 90 91 92 94 99 104 108 112 118 119 117 115 110 113 120 124 127 129 128 125 114 108 105 103 101 97 94 92 91 91 91
76 79 82 83 86 88 91 92 95 98 101 104 110 115 119 116 114 108 114 118 124 128 132 128 123 115 108 100 98 98 96 93 89 86 85 83 83 84
79 82 84 86 89 92 94 96 100 104 109 111 115 118 114 110 112 117 122 127 132 130 126 115 109 102 98 93 90 87 85 82 81 78 76 76 75 75
82 84 87 90 93 96 98 102 107 112 116 119 114 106 108 115 119 122 127 133 133 119 106 103 99 93 86 83 82 80 76 74 70 68 66 65 65 66
84 87 91 93 97 100 105 109 114 119 121 116 107 110 116 120 124 130 131 124 116 101 91 93 84 81 78 76 75 72 70 68 65 63 60 56 56 57
87 91 94 97 101 105 111 115 122 120 116 109 114 117 122 126 130 131 119 107 101 92 77 85 76 74 70 69 70 65 64 62 61 59 57 56 54 54
91 94 98 102 106 111 116 121 119 112 113 117 118 123 128 132 127 113 105 96 88 82 75 81 69 66 64 61 63 60 59 57 57 55 53 51 52 52
94 98 102 107 112 117 118 114 108 115 119 123 125 128 129 121 107 100 92 88 87 77 65 70 64 60 60 52 59 56 54 53 52 49 48 44 45 46
98 102 107 112 118 117 110 107 114 118 123 126 128 127 115 105 95 87 87 81 78 76 60 62 57 54 57 48 54 53 49 47 47 43 43 41 40 41
103 108 113 115 113 107 107 113 118 122 126 129 126 111 101 91 84 79 73 70 69 71 57 59 53 45 56 43 46 47 48 41 42 40 40 40 39 38
108 112 112 106 103 108 113 119 122 126 129 121 108 99 90 84 78 71 64 58 57 62 58 54 52 41 42 52 37 38 41 36 37 36 35 37 35 34
109 104 100 104 108 114 120 123 127 128 114 104 95 87 84 77 69 62 56 52 54 55 57 52 53 45 42 41 41 29 31 27 33 33 29 28 29 33
96 99 104 109 114 121 124 126 125 109 100 93 86 82 75 67 61 59 56 53 50 48 50 51 46 41 38 38 35 28 30 24 24 26 27 29 31 30
100 105 110 116 121 123 126 117 105 97 90 84 81 74 66 60 59 60 57 53 47 41 43 43 38 34 33 34 31 29 27 26 23 21 24 26 29 29
105 111 116 120 123 122 108 100 93 86 81 76 68 63 59 60 58 55 52 48 40 35 33 36 30 28 29 29 23 24 28 24 26 28 27 23 22 24
110 115 119 121 111 101 95 89 82 78 72 65 59 56 58 55 53 50 46 40 32 29 26 27 25 23 24 24 21 16 20 21 22 21 22 23 22 20
115 117 110 100 96 91 85 79 76 68 62 56 55 57 54 48 46 45 41 34 27 24 22 20 19 20 21 19 19 19 18 19 19 21 21 20 19 18
106 97 93 90 85 79 74 71 64 59 55 54 56 52 48 44 43 38 35 29 24 20 18 15 15 16 14 14 14 16 17 18 18 16 15 16 16 15
91 88 84 78 72 69 64 59 55 52 54 55 50 46 42 42 37 34 28 24 18 15 13 11 12 11 10 10 11 12 13 13 13 14 13 11 10 9
81 76 71 65 63 58 53 51 49 51 52 48 44 40 38 37 33 28 23 19 14 11 8 8 7 6 7 9 9 10 12 14 13 11 8 6 5 4
68 63 60 56 51 47 45 45 49 48 44 42 39 36 31 28 25 21 17 14 10 7 5 4 4 5 7 6 9 13 14 11 11 9 9 7 9 10

GFSNE_250_spd_030.txt.gz
Wind_Speed
79 78 77 76 77 77 77 77 76 76 79 88 87 90 91 92 95 97 99 103 107 111 115 117 118 116 111 101 106 111 116 120 123 125 126 124 122 120
78 80 80 80 81 82 81 82 83 82 80 87 89 91 94 97 99 101 105 109 114 118 118 115 113 102 105 110 116 122 125 128 128 124 119 116 113 110
82 83 84 83 83 83 84 86 88 89 88 91 93 96 98 100 104 108 112 116 118 119 114 107 106 110 116 122 125 127 125 120 113 107 101 97 96 95
82 83 84 85 86 85 86 89 91 93 94 93 98 101 104 107 110 113 117 120 117 111 108 114 116 120 124 125 120 111 105 103 99 94 91 88 85 85
82 81 82 82 84 86 88 90 93 95 98 98 101 105 109 113 116 118 118 113 111 114 116 122 125 123 119 108 101 98 95 91 88 86 83 80 79 77
80 80 80 81 83 86 88 92 94 97 100 103 105 109 114 119 120 115 110 111 118 124 124 124 120 109 103 97 92 89 87 83 80 78 74 72 70 69
74 77 78 79 81 84 88 92 96 100 104 108 112 116 121 121 116 109 111 117 127 127 121 116 101 99 91 87 84 81 78 72 70 67 65 64 61 61
70 74 76 78 81 86 90 95 100 105 108 112 115 119 121 116 107 112 119 123 130 125 101 101 88 90 83 79 73 70 69 62 60 58 57 55 55 55
69 73 76 81 85 89 94 101 106 111 115 117 118 118 108 108 113 120 124 125 119 107 90 86 86 82 71 68 60 62 60 55 54 53 51 51 52 52
71 76 80 85 90 96 99 104 111 117 121 123 117 109 111 117 121 121 120 110 105 97 80 77 78 73 63 56 51 56 55 53 52 51 49 48 48 48
77 82 86 91 96 101 105 111 117 121 121 113 112 114 119 121 120 113 102 95 88 87 72 68 69 63 59 50 47 48 50 48 47 45 46 47 45 44
84 89 93 98 103 108 110 114 116 114 113 116 119 120 120 118 106 97 86 81 77 75 64 63 60 55 62 51 44 44 46 45 44 40 42 44 41 39
91 97 102 106 110 112 112 110 111 113 115 117 120 121 115 101 93 84 78 71 65 63 60 61 60 55 54 56 40 36 39 43 42 39 39 40 37 36
99 104 107 107 107 107 108 111 114 114 117 120 119 106 98 87 80 77 69 63 58 58 62 57 52 48 44 43 42 30 30 37 38 36 36 35 33 33
99 100 101 102 104 106 110 112 115 119 118 110 100 92 83 78 72 67 63 60 61 55 50 50 43 36 34 33 33 28 28 29 32 29 31 31 31 30
94 96 99 103 107 111 115 118 116 108 98 91 84 79 75 69 63 59 63 63 58 48 37 43 32 30 28 30 25 22 28 23 22 23 26 24 28 29
96 101 106 110 113 115 113 105 97 90 83 77 73 69 64 59 59 61 58 55 49 43 32 33 26 26 25 20 21 21 19 20 22 20 18 17 22 24
104 108 110 110 107 101 95 89 83 78 72 69 63 58 56 58 59 54 49 44 38 31 28 26 24 20 18 17 17 16 20 18 17 17 20 20 18 19
107 104 100 96 91 86 82 77 71 67 63 58 55 56 59 55 50 47 41 34 30 26 24 22 17 14 15 15 14 11 10 13 14 15 15 16 17 17
95 92 87 82 78 73 68 65 62 57 52 52 55 55 52 50 46 40 34 28 25 22 18 13 12 13 13 13 14 14 14 14 14 15 17 17 17 16
83 80 76 70 65 62 59 55 51 47 50 54 51 48 46 44 39 34 28 23 20 16 12 11 9 9 9 10 11 11 11 12 13 14 15 17 16 15
74 69 63 59 56 51 47 44 43 48 49 45 45 42 40 36 31 26 22 19 16 11 9 8 8 8 9 9 9 10 11 10 10 9 10 10 11 12
62 57 54 49 45 41 38 41 46 44 42 40 39 37 32 28 23 19 17 14 10 9 9 9 10 11 9 9 12 11 8 8 10 11 11 11 10 8

GFSNE_250_spd_036.txt.gz
Wind_Speed
69 68 69 72 72 71 70 72 71 69 71 79 83 86 87 89 93 94 93 92 92 93 94 96 99 101 103 103 105 105 105 105 105 106 107 109 111 114
72 72 75 75 74 72 73 71 72 74 73 77 81 83 84 87 88 89 92 94 94 94 94 95 97 98 100 102 103 104 104 106 106 109 112 115 118 121
72 78 78 78 74 74 72 73 78 80 79 79 80 82 82 84 86 86 86 88 92 95 96 97 98 99 99 101 102 102 104 107 111 115 118 122 126 128
79 79 79 77 77 73 73 78 82 83 81 80 80 78 77 77 76 77 79 84 88 93 97 99 99 101 101 102 104 107 112 115 119 124 127 127 123 119
79 79 79 77 71 74 79 83 83 81 78 71 68 69 71 74 74 76 79 86 90 95 98 99 101 104 107 109 112 117 120 122 124 121 120 120 120 120
78 79 75 72 75 79 80 76 73 72 73 72 71 73 76 80 80 81 85 90 93 99 102 104 108 111 116 118 119 119 117 115 116 118 120 121 118 109
75 67 70 73 78 77 76 75 76 79 81 81 82 82 84 85 88 91 92 96 103 108 111 112 111 109 110 111 113 115 115 114 111 107 106 104 101 92
67 71 75 78 79 80 79 82 85 88 91 91 91 92 93 95 97 99 101 102 99 106 103 104 107 109 112 114 116 113 105 96 89 87 90 92 89 82
74 78 84 85 84 83 86 91 94 97 96 95 96 97 96 98 95 94 96 97 102 107 106 108 110 108 108 107 105 97 85 77 75 78 80 81 79 72
81 83 86 88 87 91 93 96 99 101 101 102 101 99 97 97 98 99 104 105 107 107 104 97 98 97 96 97 94 83 70 66 67 71 72 70 70 63
86 85 85 91 92 96 99 100 101 102 102 102 102 102 102 104 105 105 104 101 100 99 97 89 89 86 84 88 85 72 56 57 66 73 68 65 62 56
84 87 90 93 97 100 101 99 97 99 104 108 109 109 110 110 106 101 97 94 92 90 88 80 79 74 72 80 74 59 55 60 66 65 61 58 54 49
87 91 95 96 99 98 97 100 103 106 110 112 114 114 111 105 100 93 88 84 80 77 73 69 69 69 64 64 71 61 56 56 56 53 51 48 44 45
91 95 97 95 97 102 105 107 110 113 115 114 110 104 99 94 89 85 78 72 70 63 62 61 63 62 60 58 57 51 51 49 46 43 40 38 36 39
88 88 93 98 102 107 110 112 113 111 106 100 95 91 87 83 76 72 68 61 61 57 53 56 56 53 51 51 47 44 40 39 35 34 34 34 33 35
90 94 99 103 107 109 109 105 99 94 91 88 84 80 74 69 64 58 58 59 58 55 48 51 47 45 42 40 36 35 33 33 32 32 31 30 29 32
96 102 106 107 105 100 93 88 85 81 78 73 68 66 62 57 55 57 56 53 51 49 42 39 35 34 32 30 28 28 28 28 29 29 27 25 28 30
103 105 103 97 89 85 80 75 71 66 62 59 55 53 52 55 55 49 48 46 40 36 32 29 27 26 24 22 22 25 23 25 25 25 25 23 26 28
99 93 86 81 76 71 65 61 57 53 51 47 46 49 51 48 45 42 38 34 31 29 26 23 21 20 20 19 20 21 22 20 20 22 24 24 26 27
83 79 73 67 62 58 55 50 46 44 43 44 46 46 44 42 39 36 32 28 25 23 20 19 19 18 16 16 15 16 18 19 20 21 21 21 23 25
72 66 60 57 54 51 48 44 40 39 40 42 43 42 39 37 35 31 27 23 21 19 18 16 15 15 16 16 16 15 15 16 17 17 18 19 20 19
60 56 54 52 49 46 42 38 36 38 40 41 39 37 34 32 30 25 22 19 17 15 14 14 14 15 16 15 16 17 17 15 16 18 19 17 16 15
53 51 49 47 43 37 34 34 35 38 40 40 35 32 29 27 22 19 16 14 13 13 13 14 14 14 15 15 15 12 13 15 16 15 15 15 16 16

GFSNE_250_spd_039.txt.gz
Wind_Speed
76 76 77 78 78 81 73 74 74 76 77 80 78 77 74 78 83 86 85 85 86 85 85 85 86 88 90 92 95 99 98 96 95 96 96 98 100 102
76 75 79 82 84 80 77 79 80 83 79 78 78 76 79 83 91 90 89 88 88 87 86 85 85 84 83 84 86 89 93 97 97 97 98 99 99 100
73 75 77 81 84 79 85 86 86 87 83 79 77 80 81 85 88 83 80 79 79 81 81 81 81 80 80 81 82 83 86 91 95 98 100 101 101 101
73 74 70 83 82 84 88 88 87 86 84 78 82 86 88 88 78 75 75 77 79 83 85 86 85 85 86 87 87 88 91 95 98 99 100 101 104 105
71 74 78 85 87 86 87 90 88 84 80 83 86 86 79 79 78 79 80 83 86 88 91 90 88 90 91 92 93 96 99 102 104 106 107 111 113 116
74 78 83 86 87 85 84 84 81 80 84 85 81 79 81 85 86 85 87 91 92 96 98 95 94 95 97 97 98 101 104 107 109 110 112 115 118 120
72 74 81 84 82 84 83 85 84 82 84 83 84 91 91 93 93 94 94 94 96 96 97 97 94 96 98 99 103 106 108 109 110 109 110 112 115 118
72 74 78 83 86 89 87 84 83 85 88 92 96 99 100 101 99 98 96 95 96 104 102 103 101 104 105 108 110 109 108 106 103 102 102 103 105 106
71 75 79 83 84 87 83 84 89 96 100 100 102 104 103 101 98 100 103 102 105 109 106 105 106 104 104 105 104 102 98 90 85 85 86 90 92 93
73 74 74 79 84 84 87 95 102 104 103 105 106 103 103 105 107 108 110 109 111 111 102 93 94 94 95 97 95 91 82 73 70 72 75 79 81 80
71 75 80 82 87 90 95 98 100 105 107 107 107 109 110 113 114 111 110 106 102 99 96 83 87 85 85 89 87 80 69 63 61 64 69 69 67 64
72 76 80 85 89 94 97 99 102 102 105 110 113 117 117 116 111 105 99 94 92 90 88 78 80 77 74 81 79 70 61 58 59 62 63 62 60 58
78 82 86 90 93 95 96 98 103 106 111 116 119 121 120 112 103 96 91 85 80 76 74 69 73 70 65 65 72 65 60 58 54 52 52 52 50 48
83 87 89 91 93 98 102 106 112 115 118 120 119 108 100 95 90 85 79 74 70 63 64 63 61 62 61 61 59 55 55 52 48 44 43 41 40 39
79 82 87 93 97 104 109 112 117 117 114 104 95 90 85 80 75 72 69 63 59 56 58 55 56 54 53 51 48 47 44 43 39 37 35 35 35 35
82 86 93 98 101 107 111 111 107 98 92 87 80 74 71 67 61 58 57 57 57 53 54 50 49 47 44 42 40 39 36 35 33 32 30 29 30 30
88 94 97 102 106 103 98 92 87 80 74 69 65 62 58 55 52 54 54 53 52 49 45 44 41 38 36 35 34 31 29 30 28 28 26 27 26 25
95 98 102 101 94 87 82 75 68 62 59 56 53 51 49 51 51 51 49 46 43 40 38 36 33 30 29 29 30 27 25 25 26 26 25 24 25 25
97 95 89 83 78 71 64 59 55 53 51 50 47 46 48 50 48 45 41 39 36 34 31 28 26 24 23 23 24 26 27 27 27 27 27 27 26 27
87 80 75 69 62 58 54 50 49 48 47 45 44 44 46 46 43 40 36 32 30 27 26 24 22 22 22 23 23 22 22 22 23 24 26 26 26 25
76 70 64 58 54 50 47 45 44 43 43 43 41 43 43 41 37 35 31 29 26 25 23 22 23 23 22 21 20 20 20 22 24 24 22 20 19 20
66 60 56 52 49 45 43 41 40 40 41 40 41 39 38 36 33 29 27 23 21 21 22 22 22 22 21 21 21 23 22 19 18 19 20 22 24 18
58 53 50 46 43 40 39 38 38 38 39 39 38 34 31 30 28 24 21 19 20 21 21 21 21 21 21 20 23 24 23 20 20 18 16 18 18 19

GFSNE_250_spd_042.txt.gz
Wind_Speed
77 77 78 79 82 81 82 83 84 82 85 87 87 84 84 80 79 84 80 78 79 77 84 87 87 85 80 79 76 74 75 77 77 76 79 82 86 92
79 81 79 83 83 84 83 84 85 86 86 89 89 91 90 86 86 85 84 83 83 86 89 89 87 77 77 75 76 78 79 80 80 81 82 82 82 84
83 83 84 87 85 84 82 83 85 88 89 86 90 95 92 87 88 90 86 85 90 92 92 85 82 81 80 82 82 83 84 85 86 87 88 88 88 88
82 85 85 86 85 83 81 85 85 89 90 91 94 95 92 87 89 92 93 95 87 85 85 87 87 84 86 86 85 85 85 86 88 90 92 92 94 95
83 85 86 87 81 82 83 84 86 92 95 96 99 90 87 91 92 92 93 88 88 89 91 90 88 88 88 86 85 85 88 89 92 94 96 98 100 102
78 78 77 77 78 80 82 87 93 94 96 94 89 86 90 94 95 94 92 94 91 96 97 93 89 89 92 91 93 95 96 98 99 100 102 104 107 109
68 71 73 75 79 82 85 90 94 94 94 88 90 95 101 98 96 95 93 91 96 97 98 102 101 102 103 101 101 101 101 101 100 100 102 104 107 109
62 68 72 77 81 83 87 90 84 83 90 93 94 99 98 100 98 97 98 97 100 107 108 112 109 112 111 111 105 101 97 93 91 89 90 94 97 100
63 69 71 76 80 77 79 81 86 89 90 92 96 100 103 100 96 99 103 106 111 115 110 118 116 116 108 103 97 92 89 84 80 77 78 82 86 89
64 68 71 73 77 78 80 84 89 92 94 99 102 100 98 101 104 108 112 117 121 123 112 105 103 98 95 93 87 80 74 70 66 66 70 75 79 80
62 62 64 70 75 78 81 87 91 95 97 97 99 103 106 110 112 116 121 122 117 108 96 89 92 85 83 83 78 71 63 58 57 60 63 65 66 65
59 64 70 74 79 84 87 89 90 92 97 102 107 110 114 117 119 120 114 106 98 94 87 82 78 72 73 71 65 62 61 57 57 56 57 58 58 58
66 70 72 76 82 86 85 87 92 97 102 107 113 117 118 119 117 107 98 90 83 79 74 70 67 66 65 67 62 60 57 54 49 47 47 46 46 47
68 73 76 79 81 86 91 95 99 105 110 113 116 118 116 106 98 89 80 76 68 65 64 61 62 61 60 58 54 48 48 42 38 36 35 35 35 35
70 75 80 85 89 93 97 102 106 108 112 116 114 103 97 88 80 76 69 64 57 57 60 59 56 54 51 47 43 40 36 36 32 30 30 29 29 29
76 80 85 90 94 97 99 102 106 108 104 97 93 85 77 73 67 61 56 53 54 53 51 53 50 43 40 40 36 34 31 28 28 26 24 26 25 26
82 86 89 91 95 99 102 103 97 93 89 82 75 71 66 59 51 51 51 53 55 53 45 40 40 38 35 33 31 29 27 27 26 25 25 23 24 24
83 86 90 94 99 98 93 87 83 76 70 66 62 60 53 50 48 49 50 51 47 44 37 33 31 30 29 29 29 29 28 27 28 26 25 23 23 24
84 90 94 92 85 80 77 73 67 62 59 54 52 51 49 50 50 49 48 44 37 34 30 27 25 25 26 27 29 28 26 27 28 28 30 28 25 21
86 87 79 76 74 71 64 57 55 52 48 46 47 48 49 47 48 44 40 37 30 26 23 24 25 25 26 25 25 24 27 29 29 28 24 20 21 22
80 74 70 67 65 58 53 50 48 44 42 43 44 46 46 45 42 36 33 29 25 22 22 23 24 23 23 24 25 25 23 23 25 28 29 29 24 19
68 64 63 60 55 50 47 44 41 40 42 42 44 44 43 40 36 30 27 22 18 19 20 22 21 20 21 24 26 28 25 21 20 21 23 23 23 19
62 60 58 53 48 46 43 39 37 38 39 40 41 42 39 35 29 26 20 17 18 19 21 20 19 21 24 25 25 25 24 25 24 21 21 21 20 21

GFSNE_250_spd_045.txt.gz
Wind_Speed
76 73 74 74 76 79 79 79 80 83 85 87 87 92 92 91 89 88 87 84 85 84 85 83 79 80 79 77 77 82 85 84 79 77 75 79 81 82
84 82 80 78 82 82 84 84 83 83 92 89 91 94 95 95 94 91 89 88 91 89 84 78 81 84 83 84 86 85 87 83 80 80 83 86 87 88
87 86 86 85 85 84 86 87 88 92 92 91 92 95 97 95 96 95 92 91 94 94 83 83 86 85 85 88 88 87 87 89 91 89 89 92 94 94
82 87 87 89 90 87 91 89 89 94 93 94 93 94 94 96 95 95 95 95 91 86 91 91 89 88 88 90 91 93 94 90 89 86 86 87 87 89
76 77 81 83 85 85 84 88 92 91 89 90 91 91 92 93 95 95 94 92 94 92 95 92 93 94 94 92 90 89 89 90 90 91 92 93 94 96
79 82 86 87 88 87 84 82 90 85 87 90 90 90 90 92 94 97 92 96 96 100 101 102 99 95 97 97 97 97 96 96 97 98 98 99 103 106
77 80 86 86 89 86 84 78 79 81 86 89 87 88 90 93 90 91 93 97 99 102 103 102 100 103 105 105 102 99 97 95 94 95 97 101 104 108
70 71 72 73 73 69 70 74 77 80 85 87 87 90 88 89 91 94 96 98 99 102 100 107 106 111 111 109 104 97 90 87 85 86 87 89 91 95
61 62 63 62 59 59 66 72 77 79 81 82 85 89 89 92 95 97 98 99 103 107 104 109 113 118 112 106 94 87 82 77 76 77 77 80 82 84
59 55 55 54 57 60 64 69 76 79 82 85 88 90 93 95 94 96 101 104 106 110 104 112 116 109 102 93 82 75 71 69 67 66 66 68 69 70
44 47 51 53 58 62 66 70 77 83 87 88 91 93 93 95 99 102 105 106 107 111 106 111 101 95 88 77 71 65 63 62 61 60 60 61 63 64
42 47 51 57 62 68 74 79 82 85 88 90 90 94 98 101 102 104 107 109 109 109 99 98 84 78 78 67 58 63 63 62 58 58 56 56 57 58
47 53 58 65 70 74 77 80 82 86 90 93 95 98 99 102 106 107 106 103 96 92 84 81 76 71 64 69 62 59 59 57 51 50 48 46 45 47
53 57 63 67 71 75 79 83 88 90 91 94 98 101 103 106 107 100 92 87 77 74 72 69 66 63 62 60 59 54 50 49 44 39 40 40 38 37
60 65 70 75 79 82 86 89 91 93 95 97 100 104 102 93 90 85 77 73 65 60 59 60 59 61 58 53 51 46 42 39 40 38 36 35 34 32
65 69 74 79 83 85 88 91 93 95 98 98 97 90 87 82 76 71 66 58 54 50 50 51 55 54 52 46 40 37 37 34 32 34 31 31 28 28
66 72 78 83 85 87 92 95 97 97 94 88 82 79 72 67 62 55 51 51 51 52 50 44 46 43 41 37 33 32 31 32 32 30 29 25 26 27
75 81 87 88 89 93 95 92 88 83 76 74 69 63 59 53 47 45 48 49 49 46 44 41 37 32 30 32 29 29 30 31 28 30 29 25 15 23
83 86 89 91 92 88 83 81 75 71 67 61 55 51 47 44 45 45 47 47 43 38 37 33 28 28 26 26 29 33 31 28 27 25 26 23 23 20
86 88 88 84 80 75 70 66 65 60 54 50 45 42 42 43 43 44 43 41 35 32 29 26 26 26 27 27 24 20 26 28 28 28 28 25 20 21
84 79 77 71 66 64 60 59 55 48 44 39 37 39 41 43 43 41 37 32 31 26 23 22 23 23 24 26 28 24 22 23 25 27 26 26 24 21
77 71 66 61 58 56 55 51 45 41 38 34 35 37 40 42 40 36 29 26 24 22 19 19 19 18 22 24 24 23 23 22 22 23 26 24 22 17
70 62 58 56 54 52 47 42 40 38 35 31 34 38 40 40 35 30 24 22 21 17 16 17 15 18 21 21 21 23 24 24 25 23 23 23 20 19

GFSNE_250_spd_051.txt.gz
Wind_Speed
113 112 108 105 102 99 93 88 81 90 85 83 83 88 90 93 90 85 91 92 92 95 94 97 97 97 97 93 90 88 87 89 81 73 68 67 69 72
110 106 102 98 96 92 90 87 84 88 88 88 85 88 101 98 98 99 100 103 102 100 98 101 102 99 99 95 93 90 89 83 76 70 71 72 74 78
106 101 98 95 91 88 87 87 88 90 93 94 95 96 97 97 100 102 96 94 99 97 96 97 97 96 96 96 95 93 88 80 74 74 76 79 79 79
105 102 100 96 92 90 89 89 92 95 99 101 99 94 91 103 97 91 100 98 100 103 97 92 97 98 100 98 95 86 81 80 80 80 80 81 85 87
100 103 102 100 98 96 95 96 97 96 95 94 92 88 89 95 96 103 101 99 99 104 100 101 95 91 88 86 84 82 83 82 83 83 87 90 92 94
88 87 89 91 90 88 87 85 83 82 84 84 86 87 88 90 96 99 100 102 103 104 101 100 87 76 75 77 80 83 84 86 87 90 93 93 95 97
77 80 79 77 76 74 73 73 75 78 80 82 83 84 87 90 95 94 93 93 93 90 85 80 80 80 83 84 87 87 87 89 91 93 96 98 100 102
64 67 69 71 68 67 70 72 76 78 78 79 82 84 86 87 87 88 88 81 80 81 80 87 84 88 89 91 90 86 86 88 92 94 97 101 104 105
45 56 63 65 64 67 73 73 74 75 76 75 73 69 74 72 72 73 76 79 84 85 87 94 91 93 92 90 87 86 87 90 93 96 98 99 98 97
35 45 55 60 62 63 61 55 51 51 54 59 62 66 69 73 76 80 85 88 90 91 90 94 91 93 94 91 89 89 89 89 90 89 89 88 84 78
11 15 20 26 31 36 41 46 51 54 59 64 68 73 76 79 83 86 88 90 91 90 90 91 92 94 99 96 91 84 82 78 81 80 77 74 68 64
20 23 27 31 36 41 46 53 58 62 67 71 76 80 83 86 88 91 92 93 93 93 91 94 94 92 95 92 81 71 71 68 69 67 62 60 59 58
29 32 36 39 44 48 53 59 65 69 74 79 83 87 90 92 93 92 94 96 96 94 89 87 88 82 77 75 78 62 58 56 57 56 55 55 56 57
37 41 45 48 53 58 63 68 73 78 82 86 90 93 95 94 93 91 88 86 83 77 72 69 73 73 74 68 61 53 51 52 55 54 53 52 50 48
44 47 51 56 61 66 72 75 78 83 87 88 89 89 86 83 80 77 74 71 68 66 64 63 64 64 62 54 53 51 53 51 52 49 44 40 40 42
50 55 60 64 68 73 76 79 84 86 84 81 78 76 74 71 66 64 63 63 63 61 56 51 52 53 52 50 53 54 51 49 40 38 39 36 36 39
57 61 66 70 76 79 80 83 82 81 79 77 72 66 63 61 60 60 60 60 57 51 45 41 45 49 48 49 52 49 45 39 38 34 36 35 32 35
64 68 72 77 80 81 81 78 80 80 74 67 64 62 60 59 57 54 51 48 47 43 39 40 43 46 45 45 44 40 38 34 30 29 33 36 30 26
68 73 78 82 84 83 77 78 78 74 67 63 61 59 55 50 47 44 43 42 41 39 38 42 45 45 40 37 34 34 35 30 30 27 28 30 30 24
73 78 82 85 86 76 77 76 70 66 63 59 55 51 48 45 43 40 37 36 36 38 40 41 42 38 33 31 26 26 32 33 33 30 27 28 27 25
76 82 85 87 77 76 77 71 65 61 58 52 48 45 44 42 41 38 35 33 35 39 41 38 32 31 29 28 25 23 25 28 30 28 26 26 26 21
80 85 88 83 74 76 72 65 59 55 53 49 45 41 39 38 37 35 33 34 35 38 38 31 25 25 25 26 23 21 22 24 24 24 23 24 25 22
84 88 88 78 74 73 66 59 54 50 48 46 43 39 37 36 34 34 35 35 35 32 29 25 22 22 23 23 21 23 25 23 24 21 20 21 22 22

GFSNE_250_spd_054.txt.gz
Wind_Speed
104 103 106 103 100 102 100 101 99 94 91 82 72 68 75 80 85 91 86 85 87 93 98 96 98 101 99 96 94 86 85 84 84 83 85 83 81 78
100 100 100 99 100 100 98 96 94 90 85 80 78 78 68 79 85 83 89 87 95 97 103 106 107 104 103 99 99 90 94 92 92 88 82 84 88 84
94 94 96 97 96 97 97 95 89 83 83 80 79 81 86 87 86 86 91 96 97 106 108 112 108 103 100 98 97 100 102 91 84 81 86 87 82 80
72 73 80 90 92 93 91 92 91 87 74 82 75 83 82 88 90 92 98 107 108 112 107 105 103 102 103 105 104 102 97 90 84 78 78 75 73 74
58 59 62 70 81 90 87 84 84 87 89 88 89 89 91 94 101 105 106 105 101 99 97 97 99 99 102 104 102 96 93 88 80 77 71 71 71 73
49 51 52 56 63 73 77 77 76 76 80 85 88 89 91 91 90 89 90 91 93 94 94 96 98 100 100 97 93 92 87 80 77 76 77 78 79 81
36 37 37 39 44 52 60 65 68 68 69 70 73 75 77 77 82 86 90 92 93 92 89 89 84 86 88 88 85 81 80 81 80 81 83 85 87 86
27 23 22 23 27 36 47 56 62 66 70 69 71 72 76 78 81 81 78 80 82 84 81 82 77 81 82 83 83 83 82 81 83 86 88 90 90 90
32 25 19 18 20 28 39 48 54 58 62 69 73 75 75 75 74 74 75 74 76 79 82 85 83 87 88 87 85 84 83 82 82 84 86 89 91 92
34 30 24 20 19 23 30 38 46 54 59 59 60 62 65 69 73 76 79 82 83 83 84 87 84 87 88 85 86 86 84 84 85 87 91 92 93 94
32 28 25 23 25 25 29 34 39 44 51 57 62 67 72 76 78 80 84 87 88 88 88 92 88 92 94 91 90 90 88 86 85 85 87 86 86 83
34 33 33 33 34 35 39 43 48 52 58 64 69 74 77 81 85 89 91 91 92 92 92 95 92 90 95 93 89 84 80 75 71 73 74 74 73 67
40 38 38 40 42 44 48 52 57 61 66 71 76 80 84 87 89 90 91 90 89 88 85 85 83 78 78 81 83 71 66 60 61 63 64 61 55 55
45 46 45 46 49 52 56 60 62 67 71 76 79 82 85 85 83 80 79 79 80 78 74 71 72 69 68 67 69 67 59 50 49 51 51 47 50 53
48 48 50 52 55 59 63 66 69 73 75 80 80 79 76 76 76 74 70 68 67 65 62 59 60 62 62 62 62 54 46 43 41 47 47 45 45 46
52 53 55 58 61 65 69 72 76 78 81 77 75 75 75 71 66 64 63 62 62 59 56 54 53 54 56 51 47 43 40 45 40 43 45 41 38 39
57 58 61 65 69 71 75 78 80 82 78 75 76 75 70 66 62 60 58 56 54 51 46 43 43 45 47 44 39 40 46 45 41 36 37 36 33 33
59 62 65 70 73 76 79 81 83 80 75 76 76 71 67 63 58 54 52 50 48 46 44 40 39 41 43 40 38 46 44 42 34 31 29 33 26 30
63 66 70 74 76 79 82 85 83 77 75 76 71 67 63 58 54 50 48 46 44 43 41 38 37 38 42 42 37 40 40 34 29 23 26 27 27 25
67 71 73 75 79 82 85 83 78 74 77 74 68 62 59 56 51 48 45 43 41 40 39 34 34 38 42 44 39 31 31 29 27 23 21 22 25 24
71 73 76 79 83 86 82 80 74 76 75 71 63 58 55 53 50 47 43 40 38 37 38 38 35 38 40 37 32 25 26 26 25 23 21 25 25 24
76 78 80 82 85 83 80 75 77 75 70 64 59 56 53 49 47 45 40 36 33 35 38 40 38 33 32 31 26 21 22 25 25 26 26 25 27 25
77 79 80 83 82 78 75 77 75 70 63 59 55 52 49 47 43 40 36 35 36 38 37 38 32 29 26 25 23 19 18 22 26 26 24 25 26 27

GFSNE_250_spd_057.txt.gz
Wind_Speed
104 100 92 90 93 92 99 103 105 105 100 90 85 83 80 74 73 73 68 66 75 76 80 77 83 95 94 92 97 90 98 95 93 99 96 96 86 82
95 92 94 92 91 90 95 99 99 96 93 88 83 82 79 74 68 68 72 81 81 79 88 88 87 93 94 100 98 100 98 101 102 103 105 98 90 87
86 87 84 77 71 69 75 76 77 73 69 86 82 78 78 74 76 72 73 72 80 77 82 88 89 98 100 102 103 101 101 106 110 113 105 97 90 90
86 79 71 58 53 52 56 58 64 74 80 86 70 72 79 79 84 79 77 81 84 92 96 99 101 101 100 101 104 107 113 117 112 103 98 96 95 94
72 71 62 53 48 43 41 44 52 62 70 75 76 78 80 73 78 80 83 83 83 88 91 96 97 101 105 109 116 116 111 105 100 98 98 93 93 92
64 59 55 48 44 37 33 33 39 47 50 60 68 75 77 71 72 74 84 87 92 95 101 105 105 103 103 104 103 102 102 98 96 93 94 92 89 86
57 54 49 44 38 32 25 21 23 26 35 48 56 63 66 68 71 73 77 80 84 86 88 90 92 93 96 99 99 97 97 93 86 81 78 78 78 78
52 53 50 47 40 34 29 22 17 16 21 30 41 51 59 64 68 71 76 80 82 84 88 92 93 95 91 87 83 83 83 83 83 82 81 82 83 83
49 49 49 49 46 43 37 33 28 25 25 29 36 45 52 59 64 69 75 80 82 80 81 83 85 87 89 89 90 89 88 88 88 87 86 86 87 87
47 47 45 43 40 37 35 32 30 30 31 34 37 43 49 55 61 67 72 76 79 82 87 87 90 92 94 93 92 90 88 88 88 87 87 88 90 91
48 47 46 44 41 39 38 36 36 38 40 43 46 50 55 59 64 69 74 79 82 84 88 90 89 92 94 93 94 93 91 88 87 86 86 86 88 89
50 50 50 48 47 46 45 44 44 46 49 52 56 58 61 66 70 75 81 86 88 88 89 91 90 91 93 92 90 88 85 82 82 79 78 77 77 75
52 52 54 54 54 52 51 51 53 55 58 61 64 67 71 73 76 81 81 80 78 77 76 80 82 80 82 85 84 76 71 70 68 63 63 65 67 65
55 56 58 59 58 56 56 57 58 61 65 67 70 72 76 79 78 77 74 73 73 71 68 67 71 69 70 71 75 71 63 60 56 55 57 60 60 58
57 59 62 63 62 61 61 63 66 69 71 72 75 78 81 78 73 71 70 69 65 60 56 55 57 61 61 61 65 61 57 54 46 45 46 47 44 44
60 62 64 64 64 65 66 68 71 73 74 76 79 80 78 72 70 70 69 65 59 52 48 47 49 50 51 50 50 48 41 41 36 34 38 39 42 42
63 64 65 66 66 68 70 72 74 77 78 79 79 76 72 72 71 67 65 60 54 50 45 43 44 45 46 46 45 41 39 34 34 35 34 40 42 41
64 66 66 68 70 72 74 76 77 77 77 77 74 72 73 74 70 64 61 58 54 50 46 40 37 39 43 44 40 41 33 35 37 38 40 40 37 36
63 66 69 71 74 74 75 76 77 78 76 72 73 75 74 72 67 60 57 56 53 50 44 38 34 36 40 42 37 30 36 40 40 36 36 33 29 29
64 65 69 72 74 74 75 77 78 75 72 73 75 74 72 68 62 58 54 51 48 45 41 33 30 31 35 41 43 32 27 44 35 30 28 27 25 25
67 70 72 74 75 74 76 77 75 71 73 76 75 72 66 63 58 53 48 44 42 40 37 32 30 31 35 39 44 40 27 35 29 26 23 25 25 27
73 75 75 75 74 74 75 75 70 72 76 74 72 67 62 56 51 47 44 41 37 35 34 36 35 35 36 38 40 34 25 28 26 25 22 24 27 22
77 77 76 74 73 73 74 70 70 74 73 70 66 62 56 50 47 44 41 37 34 33 33 37 38 36 35 32 32 25 21 23 26 25 20 20 22 20

GFSNE_250_spd_063.txt.gz
Wind_Speed
115 116 115 107 104 100 94 88 85 75 71 76 81 80 73 67 66 68 62 69 73 63 62 75 71 65 74 68 68 69 61 66 71 72 78 77 81 74
112 112 104 101 98 90 83 81 77 74 73 76 78 77 66 60 57 58 62 70 73 71 71 75 77 72 75 71 71 74 78 79 75 74 81 83 82 83
107 98 97 96 88 80 77 74 71 72 73 73 73 72 60 50 46 48 59 76 81 81 78 84 81 81 78 79 83 85 85 80 85 86 89 94 92 92
92 92 94 86 78 74 73 70 68 69 70 68 66 64 56 44 41 39 59 64 71 71 76 72 74 82 87 88 92 90 82 81 84 88 94 92 93 93
89 93 84 76 72 70 70 67 67 68 67 63 61 57 54 43 37 36 47 61 65 73 74 75 79 82 83 84 87 85 86 95 90 92 94 93 94 99
92 84 75 69 69 69 67 64 65 67 64 60 57 55 50 43 37 32 36 49 62 71 70 77 72 79 82 83 91 90 90 94 98 96 95 98 104 107
75 73 69 66 68 66 65 63 65 65 63 61 57 53 48 43 37 29 29 42 49 50 55 61 62 66 70 74 85 89 91 94 94 93 94 98 99 104
67 68 65 66 66 63 63 63 63 62 62 62 60 58 53 47 42 37 35 32 34 46 56 61 68 68 68 73 76 80 82 84 89 93 95 97 99 100
65 65 63 63 60 60 61 60 60 60 59 60 61 58 56 52 48 47 46 44 43 44 49 54 57 63 68 71 74 77 80 85 90 91 92 94 98 99
62 60 59 57 56 58 60 60 60 59 61 61 61 59 56 53 52 51 51 52 54 56 59 62 65 68 72 76 79 81 83 87 90 93 96 99 100 101
56 55 56 56 58 61 60 60 61 60 61 61 60 59 58 56 57 57 58 60 61 64 66 69 72 75 78 82 85 87 88 92 95 98 99 99 98 98
53 55 57 59 61 61 60 61 63 62 62 61 60 59 60 62 64 65 65 65 65 67 68 71 73 75 77 80 82 82 81 82 84 86 88 89 90 91
53 56 58 60 61 61 62 63 63 61 59 59 61 64 68 70 71 72 71 69 69 68 68 73 76 74 74 77 79 79 80 81 81 82 81 82 82 81
52 54 56 57 57 58 60 58 56 58 61 64 67 70 73 75 76 75 73 71 71 70 72 73 74 74 77 80 80 76 72 70 68 68 67 70 71 70
50 51 52 53 55 53 53 54 57 61 65 69 72 76 79 80 79 75 73 72 72 73 74 72 75 77 75 73 73 71 65 60 57 56 57 62 63 61
46 47 48 48 50 54 57 60 64 67 70 74 78 81 83 82 77 75 73 73 75 74 73 75 74 69 66 65 66 68 61 58 53 46 52 55 53 54
44 47 50 53 57 60 63 66 68 71 75 79 82 84 83 78 75 73 73 75 76 76 76 70 64 63 61 60 60 59 58 54 48 43 44 47 47 47
51 53 56 59 62 65 68 69 72 75 79 83 85 84 79 76 73 73 73 72 74 75 70 64 56 53 54 57 53 54 51 48 42 40 35 36 41 41
57 59 62 65 69 69 70 72 76 80 84 86 85 79 76 73 72 72 70 71 71 68 64 58 51 47 48 51 51 45 44 39 36 34 30 31 38 35
64 65 67 68 69 71 73 77 81 85 86 84 78 75 72 70 70 69 70 68 64 61 58 51 45 42 42 44 45 38 29 36 34 36 33 34 38 39
65 66 68 69 71 74 79 82 85 84 81 76 71 69 67 66 66 67 66 61 56 52 51 45 40 38 38 38 39 39 30 29 35 37 37 37 39 38
66 67 69 72 77 80 83 84 81 76 74 71 68 66 63 61 63 64 59 54 48 43 41 39 37 34 32 36 38 39 35 25 24 30 35 31 29 28
67 70 73 78 82 83 81 77 73 71 69 67 63 60 60 60 60 57 51 45 40 37 32 32 29 28 27 28 29 29 28 24 21 23 20 18 18 21

GFSNE_250_spd_066.txt.gz
Wind_Speed
106 107 107 109 109 109 106 99 96 90 91 82 74 72 68 67 67 67 68 63 53 41 42 50 65 65 60 64 73 72 68 69 64 59 62 63 60 64
108 107 106 108 105 101 98 96 92 90 82 75 71 69 67 66 65 65 63 59 47 32 33 47 58 65 66 62 72 71 70 68 71 68 74 75 69 66
105 104 106 105 101 94 94 91 91 81 75 70 67 66 66 68 67 63 58 54 43 26 23 44 59 61 62 67 71 77 74 75 76 76 75 70 73 74
104 106 103 98 91 90 90 90 80 74 70 68 63 63 64 64 62 60 55 50 42 32 25 26 52 61 65 74 64 75 82 80 84 82 86 82 78 82
106 102 96 88 88 91 89 81 73 69 69 65 61 60 62 61 58 55 53 49 40 31 29 36 46 57 67 70 72 75 79 88 80 85 90 85 85 89
96 88 84 85 88 84 78 72 69 67 66 60 57 58 61 60 58 56 51 47 42 37 32 32 35 50 63 68 69 74 74 79 84 90 92 91 93 91
82 82 84 85 80 74 71 67 65 63 61 57 57 59 59 59 58 57 50 46 45 41 37 34 41 49 50 51 58 63 60 64 66 74 83 91 95 98
81 84 81 74 72 69 68 67 61 59 58 58 59 60 61 60 58 55 52 49 44 44 44 44 48 49 50 53 55 58 60 64 70 74 74 79 79 82
78 74 71 69 68 67 63 59 56 58 58 59 60 61 62 60 57 54 50 49 49 49 51 52 54 58 59 61 63 67 70 73 76 76 78 80 82 83
67 66 65 65 63 59 56 54 57 59 59 60 62 63 62 59 55 52 53 54 55 56 59 61 61 62 64 67 69 72 75 77 80 83 84 85 87 88
62 63 60 58 56 55 53 55 58 59 60 63 63 61 58 56 56 57 59 61 63 66 67 68 68 67 66 68 72 75 77 78 80 82 85 87 88 89
59 58 56 54 54 54 54 55 58 59 60 59 57 56 56 59 63 65 66 69 71 73 74 73 69 68 68 70 72 73 74 75 80 82 82 80 81 83
55 54 52 52 51 52 53 53 53 53 53 54 55 60 63 66 68 70 73 75 77 78 76 71 69 67 67 69 71 73 74 73 74 77 79 80 82 83
51 48 46 44 43 44 45 47 49 52 55 58 62 66 68 70 72 75 79 81 82 78 72 70 70 68 67 69 71 70 70 71 71 73 73 73 74 75
43 41 39 40 42 45 48 51 55 59 62 65 68 71 72 74 77 81 83 85 82 76 72 68 67 68 69 70 73 73 67 63 63 64 63 64 65 66
42 43 44 46 48 51 54 58 63 66 68 70 72 73 76 79 83 85 86 82 77 71 68 66 65 66 70 72 70 68 61 60 53 49 53 55 57 58
49 49 50 51 55 59 63 66 67 68 70 72 74 78 81 85 87 85 79 73 69 68 65 62 65 67 68 68 66 61 56 50 46 43 43 49 51 51
52 51 53 56 60 65 67 69 70 71 72 75 79 83 86 86 83 74 68 67 67 67 65 64 64 62 61 62 58 55 50 47 42 39 37 40 44 43
52 53 56 60 64 67 70 71 71 73 76 81 85 87 85 77 70 66 63 62 62 63 65 63 59 56 54 55 54 43 43 43 38 34 31 33 39 35
53 55 60 63 67 70 72 73 75 78 83 86 86 79 72 67 62 60 60 60 61 63 62 57 52 49 48 49 49 44 34 37 34 34 30 33 37 38
55 60 64 68 71 74 75 76 79 84 85 81 75 70 68 66 63 62 62 61 60 60 57 53 46 44 42 41 40 38 34 32 35 38 36 37 37 40
61 66 68 72 75 77 78 81 83 79 74 72 70 69 67 63 60 60 59 60 58 54 50 47 42 40 36 34 33 30 26 27 29 28 27 26 24 24
66 71 73 76 78 80 82 81 74 69 68 69 66 64 61 59 57 58 57 55 53 49 45 42 36 33 31 29 27 23 21 20 19 21 22 18 18 21

GFSNE_250_spd_069.txt.gz
Wind_Speed
106 108 109 111 112 111 108 107 101 99 98 93 92 89 87 78 68 66 62 60 58 58 56 51 47 34 37 46 57 59 58 64 63 62 64 63 62 67
108 108 111 111 110 108 104 103 100 97 92 90 88 87 79 69 65 65 60 58 56 55 52 47 41 26 25 43 51 52 62 61 65 65 67 65 64 68
111 106 109 107 106 102 101 98 95 90 89 87 86 78 71 65 63 60 59 57 55 53 50 45 38 28 15 36 50 60 64 67 64 68 70 73 71 73
106 106 105 100 98 97 94 92 89 88 85 84 76 69 64 61 60 56 57 58 54 51 49 43 36 26 20 26 43 46 61 65 72 73 76 80 83 78
100 98 94 96 90 88 89 85 84 84 82 74 68 65 63 59 55 56 57 57 54 51 44 41 36 28 28 28 36 45 47 57 54 58 63 66 71 85
94 92 89 87 89 86 83 82 82 78 72 66 64 62 58 54 54 57 57 56 55 50 45 41 35 34 32 33 37 42 54 59 67 71 71 75 75 74
85 85 84 83 81 80 80 79 73 69 65 63 60 58 54 54 55 58 57 56 53 49 44 42 41 40 38 37 39 42 49 56 62 70 76 81 84 82
79 80 78 75 77 76 72 70 66 66 63 58 56 53 54 55 58 59 58 54 50 47 45 45 46 46 48 48 49 51 54 57 62 67 70 75 76 82
73 70 75 75 73 70 65 62 63 60 58 56 54 53 55 57 57 57 54 50 47 49 51 51 53 54 56 57 59 61 63 66 68 71 73 75 77 78
69 73 73 71 68 64 61 60 59 55 53 53 53 54 55 55 53 51 50 52 54 57 60 61 60 61 64 65 67 68 69 69 71 74 77 79 81 81
68 68 68 67 62 56 56 57 54 52 50 49 48 49 49 49 50 53 57 59 61 63 64 65 67 69 71 73 74 72 68 66 67 70 73 76 79 81
63 65 62 58 55 55 54 50 48 45 42 42 44 47 50 53 58 61 64 66 67 67 68 71 74 76 79 79 76 70 67 66 66 67 70 72 75 78
63 58 57 54 51 49 47 43 42 41 44 47 51 55 59 63 66 68 69 70 70 71 74 77 80 81 80 76 73 68 68 66 66 67 68 70 73 75
57 55 55 51 49 47 46 46 47 49 51 54 58 63 66 68 69 71 72 74 75 78 81 83 83 78 72 70 70 66 63 63 62 64 66 69 71 73
55 55 54 52 51 52 52 53 54 55 56 60 64 66 69 70 71 73 75 79 81 82 81 78 72 69 69 68 68 65 62 61 61 63 62 63 64 65
56 57 55 52 51 52 52 54 56 58 61 64 67 70 73 74 75 78 82 84 83 76 68 64 64 63 61 59 61 63 61 62 55 54 54 55 56 56
59 61 57 52 51 52 53 54 57 61 65 68 71 75 77 78 81 84 85 81 72 64 60 57 58 58 58 59 60 60 58 53 50 48 47 49 49 50
61 59 56 52 52 53 55 57 60 65 68 72 76 79 81 82 85 82 77 69 66 64 61 58 56 55 57 60 59 56 49 47 46 45 42 43 45 43
56 60 57 54 54 57 59 61 65 68 73 77 80 82 83 85 81 75 69 68 65 62 60 56 54 53 54 56 55 42 44 43 44 42 39 38 39 34
61 60 58 57 59 61 62 66 70 74 78 81 83 84 83 77 73 68 65 64 63 62 59 54 52 52 51 50 49 38 37 40 38 36 35 34 36 36
64 61 61 60 62 64 67 71 75 79 82 84 83 78 72 71 70 66 64 60 59 57 55 52 50 48 44 42 41 36 34 34 34 33 30 29 29 29
61 61 61 62 64 67 71 76 80 82 84 82 74 70 69 67 65 64 61 58 54 52 52 52 49 44 38 38 34 30 25 23 24 24 22 23 24 24
62 61 62 64 67 72 77 80 82 83 79 71 67 67 65 64 62 60 58 55 53 50 50 50 46 38 35 33 28 22 17 14 13 16 16 12 12 12

GFSNE_250_spd_072.txt.gz
Wind_Speed
102 104 107 110 111 112 113 117 115 116 111 104 99 93 93 92 85 86 83 72 62 57 53 53 51 49 46 41 39 35 29 33 53 62 62 61 66 66
107 110 111 112 113 115 116 112 115 106 103 93 91 91 92 86 85 84 74 66 62 56 50 51 51 48 45 41 35 26 21 30 55 60 63 65 69 68
109 109 109 113 111 112 110 106 102 97 91 89 89 90 86 84 84 74 67 61 57 53 51 50 49 47 42 38 31 22 19 29 51 60 64 63 71 74
106 111 106 107 110 104 104 99 94 93 88 88 88 85 83 78 71 66 62 56 52 51 50 48 47 45 41 34 29 25 23 37 45 55 59 68 72 71
107 99 100 98 100 99 96 89 88 86 86 86 82 80 73 68 65 63 59 53 50 50 51 49 47 41 36 34 29 26 28 31 38 47 57 66 72 73
96 101 102 99 94 93 88 83 84 83 80 80 76 71 64 63 60 57 55 51 50 51 49 48 45 40 33 33 32 30 32 35 39 43 50 54 64 75
93 89 83 83 85 83 81 80 79 78 79 73 68 62 60 61 57 55 53 52 52 51 49 45 41 39 39 39 37 37 39 39 41 46 50 52 57 63
86 82 79 81 78 76 78 74 78 75 69 64 59 57 58 57 55 54 53 52 50 49 45 44 44 45 48 48 49 49 50 49 50 52 53 56 59 63
80 77 73 73 74 74 73 70 68 65 60 56 56 57 57 55 52 50 49 47 46 49 51 52 53 55 56 56 56 56 55 56 58 60 62 64 67 70
70 70 71 70 68 72 69 66 63 59 56 54 53 52 51 47 45 45 46 49 52 56 59 61 61 62 63 61 60 60 61 63 65 68 70 73 75 76
67 62 63 64 70 62 64 62 58 56 54 53 51 48 47 47 47 49 52 55 59 61 63 65 65 65 66 67 68 69 71 72 74 74 74 74 74 73
59 60 63 66 61 59 61 59 57 54 53 51 51 52 52 53 55 57 59 62 63 66 68 69 68 69 71 73 75 76 76 76 76 73 70 69 69 69
60 62 64 57 57 59 59 56 57 57 56 56 57 58 57 57 59 61 64 66 68 71 73 74 75 76 78 79 77 73 71 69 68 67 66 66 66 68
59 62 56 57 58 60 58 57 58 59 58 57 57 57 57 58 61 65 67 70 73 76 79 80 82 82 76 69 67 63 62 63 62 59 59 60 62 65
54 54 55 57 60 59 59 60 62 61 60 59 59 58 59 61 65 69 72 76 79 81 84 85 84 75 65 63 64 64 62 60 57 56 58 61 63 64
52 55 56 59 61 61 60 61 61 61 60 61 61 61 63 66 69 73 78 82 84 85 84 80 71 67 64 62 62 61 58 58 55 55 58 58 57 56
53 56 58 61 63 61 57 59 63 62 60 62 62 63 66 70 74 79 83 85 84 83 75 67 67 68 65 62 59 56 54 54 54 54 51 52 48 45
57 60 62 65 63 61 61 64 65 66 63 64 64 67 70 75 80 83 84 84 81 75 70 67 63 63 64 62 58 56 53 52 50 49 46 44 43 35
60 63 67 67 64 64 67 66 68 65 65 65 67 71 75 81 85 84 84 78 75 71 68 63 61 60 59 58 56 52 51 49 47 45 38 38 36 33
66 67 68 67 66 67 68 68 67 66 67 68 71 75 80 84 84 83 76 72 70 68 65 59 56 55 54 55 56 50 46 41 41 39 33 31 31 31
68 66 65 65 66 68 69 68 66 67 69 72 76 80 83 84 82 77 70 68 65 64 61 55 52 51 51 51 53 51 40 35 38 33 26 19 19 20
61 61 64 66 67 66 68 67 68 69 72 76 79 82 82 81 76 70 68 65 62 58 57 55 52 52 50 49 49 47 35 33 33 27 23 17 12 11
61 63 64 65 66 66 66 68 70 72 75 79 81 81 80 75 69 68 65 63 58 56 55 55 53 51 48 45 45 45 32 31 29 25 22 24 20 15

GFSNE_250_spd_075.txt.gz
Wind_Speed
101 102 105 105 107 109 112 114 116 117 118 121 115 113 113 112 101 92 86 84 81 79 71 63 58 52 47 49 48 42 39 37 34 35 32 34 63 63
105 106 109 110 112 114 117 118 120 119 123 120 115 114 110 98 89 87 82 79 78 72 66 59 54 47 44 46 46 42 37 35 31 26 25 31 50 61
112 112 114 115 118 118 122 123 118 120 117 113 108 99 90 90 86 83 77 77 70 63 60 52 49 45 45 45 43 39 36 33 27 22 20 31 48 59
114 117 118 118 121 119 109 117 119 109 111 99 93 90 87 84 81 77 75 69 62 58 55 48 46 44 45 46 42 39 34 30 25 22 24 35 47 56
115 115 115 109 109 111 110 112 108 106 91 87 88 86 82 80 78 72 68 61 56 55 52 47 45 44 43 44 41 37 33 28 28 23 27 31 39 56
112 104 94 93 91 95 98 100 96 88 85 83 81 81 79 77 71 64 58 54 54 53 50 47 46 44 43 38 37 35 37 35 33 31 30 31 36 45
97 95 87 90 100 99 92 87 81 80 78 78 77 77 75 70 62 57 53 51 51 49 48 45 43 41 40 40 40 42 43 43 43 43 41 40 39 43
84 87 86 86 87 85 79 77 78 75 75 73 73 71 67 61 55 52 50 48 46 45 42 42 43 44 46 48 50 51 50 49 50 49 49 50 49 51
85 83 84 83 77 74 75 71 71 71 70 71 73 67 61 56 54 50 48 47 47 46 48 48 50 52 53 54 54 54 55 55 54 53 53 53 55 58
81 80 79 76 73 68 67 66 65 68 70 65 63 61 56 54 53 53 52 52 52 54 55 55 57 58 60 61 61 62 61 60 59 59 59 59 61 63
72 71 72 69 66 62 61 64 66 67 68 62 60 58 58 58 56 55 54 56 57 58 58 60 61 63 65 67 69 70 70 68 67 67 68 68 70 72
69 68 64 59 56 57 60 65 68 68 62 60 60 60 60 59 58 57 57 56 56 57 60 63 65 68 71 75 77 78 77 74 70 68 69 70 70 70
64 59 55 55 58 62 61 62 63 60 59 60 60 61 63 61 60 60 60 59 58 60 64 67 70 74 78 82 83 82 75 66 61 59 60 60 60 60
57 54 53 57 60 58 61 62 59 59 59 62 62 62 62 62 63 60 61 60 60 63 67 71 76 80 83 83 81 73 62 58 57 57 57 58 58 58
53 57 59 61 60 59 59 58 59 60 62 65 64 62 64 65 66 64 63 63 63 66 71 76 81 83 82 78 71 62 57 55 52 53 55 57 56 56
58 56 56 55 53 55 57 59 61 64 66 68 65 65 66 66 67 65 66 65 68 72 77 81 82 82 78 70 64 61 56 54 53 53 54 55 55 55
53 54 51 51 54 56 59 63 66 67 69 70 68 68 68 67 67 67 67 68 72 77 80 82 81 76 71 68 64 58 55 52 52 51 51 52 52 53
50 50 51 52 54 59 63 65 68 71 72 74 68 68 68 67 68 69 70 73 77 80 82 81 76 70 68 66 62 57 51 51 49 48 48 51 52 46
50 50 52 55 61 63 66 69 73 74 72 67 67 68 68 70 69 71 73 77 81 82 81 75 68 66 64 63 61 53 49 50 50 47 47 48 48 37
54 56 59 62 65 66 70 72 70 66 65 67 70 71 70 71 72 74 77 80 82 80 75 68 66 61 61 59 59 53 49 48 48 48 46 45 39 35
58 61 64 65 67 70 69 66 65 64 67 70 71 70 71 73 75 78 80 81 79 75 69 66 61 59 57 57 58 57 50 45 45 45 46 40 38 32
62 65 66 66 65 63 63 63 65 68 69 70 70 71 74 75 78 80 81 79 75 69 66 63 60 57 56 55 56 57 54 46 41 42 44 37 36 30
56 58 60 60 61 63 63 65 67 66 67 69 70 72 75 78 79 81 79 75 69 66 63 61 59 58 58 55 55 56 52 44 40 41 39 37 37 31

GFSNE_250_spd_078.txt.gz
Wind_Speed
102 102 103 103 104 106 109 111 114 113 114 120 120 124 125 129 120 114 105 97 91 80 73 71 68 61 54 52 46 43 39 41 39 37 36 36 34 41
108 109 109 110 112 113 114 115 116 118 117 118 119 116 126 111 114 106 101 90 80 74 70 67 62 56 48 47 42 41 41 41 40 36 34 33 34 30
114 116 117 117 114 117 117 117 118 122 115 114 115 124 115 110 109 98 86 83 75 69 65 61 54 47 45 41 38 39 42 42 39 34 33 30 31 27
118 119 118 118 118 119 119 116 116 112 115 108 106 104 110 102 90 82 80 75 71 66 61 55 50 46 43 39 38 38 38 36 34 31 31 28 28 26
123 122 122 121 121 120 114 116 111 109 101 104 99 98 90 85 84 77 75 71 67 60 52 47 45 43 39 36 35 33 32 30 29 29 31 31 29 28
119 118 119 117 114 112 107 103 105 96 90 90 96 84 81 77 74 72 72 65 60 53 46 40 38 37 35 33 31 31 32 34 35 36 36 37 35 34
108 107 106 106 105 104 100 92 85 88 89 87 80 75 73 70 69 71 66 62 56 48 45 43 40 39 39 39 39 39 40 40 40 40 42 42 42 42
101 102 99 96 95 90 89 83 81 86 76 78 70 68 67 67 69 69 65 60 55 50 47 48 46 45 46 46 46 47 47 47 46 45 44 44 46 49
94 94 90 89 87 84 80 75 75 73 69 67 62 62 64 69 69 66 60 58 55 54 51 47 47 48 50 51 52 52 52 53 53 52 52 52 51 52
93 88 83 83 82 79 75 68 69 65 62 59 58 62 65 67 66 61 59 57 56 52 53 51 50 50 51 52 52 54 56 57 59 60 62 62 62 61
90 87 83 76 74 71 68 64 65 58 56 54 59 64 66 65 64 61 58 57 57 54 54 55 54 53 54 55 57 59 62 64 66 69 71 69 66 64
76 73 70 68 65 64 63 63 56 53 54 59 61 62 64 61 63 60 59 61 57 58 58 58 56 56 57 58 60 64 67 71 74 74 73 70 63 60
66 64 60 59 58 58 56 52 51 53 57 59 61 62 61 62 63 62 62 62 60 60 60 59 58 58 60 63 65 70 74 76 75 72 65 60 58 58
58 58 57 55 53 52 48 49 52 55 56 62 62 63 62 63 65 66 64 65 63 60 61 61 61 62 64 68 72 75 76 75 72 63 59 58 57 57
55 54 52 48 50 47 46 52 57 59 60 61 63 63 64 65 67 68 70 70 61 62 62 63 64 65 68 72 76 78 76 69 60 58 58 57 55 54
51 51 50 52 51 50 52 56 55 57 59 62 63 63 65 67 68 72 73 65 64 63 64 64 66 69 73 76 78 77 70 63 60 57 56 54 52 51
53 53 53 54 54 51 52 55 56 59 61 63 65 65 67 69 72 73 65 66 65 66 66 68 70 73 77 80 78 69 62 59 58 56 53 53 50 49
51 53 53 53 49 49 53 57 58 61 64 65 66 68 70 73 75 67 66 66 66 67 69 71 73 77 80 80 71 65 59 57 56 54 52 53 52 47
45 46 49 52 53 55 57 59 61 63 65 67 68 70 72 72 68 67 66 66 67 69 70 72 76 78 79 74 71 61 59 54 53 52 52 52 53 48
46 45 48 50 52 54 57 59 61 62 65 67 69 71 70 69 69 68 67 67 69 71 72 75 78 76 72 68 68 64 58 55 52 51 52 52 51 49
52 52 52 53 55 57 59 62 64 65 66 67 67 67 68 68 67 66 67 69 71 71 75 78 76 72 67 65 65 64 59 52 52 54 52 50 49 50
50 52 54 55 56 57 59 59 61 62 63 63 65 66 66 68 68 69 69 70 70 73 76 75 72 67 65 62 62 63 62 56 50 50 50 48 48 48
50 51 52 53 54 55 57 57 59 60 61 60 61 61 63 65 66 67 68 69 72 74 72 71 67 64 63 60 61 61 59 55 51 49 44 39 44 46

GFSNE_250_spd_081.txt.gz
Wind_Speed
105 105 105 105 106 106 107 108 109 111 114 116 116 119 122 122 125 124 120 116 110 103 99 84 78 67 62 56 50 44 42 41 39 36 34 34 36 33
107 107 108 109 110 111 112 112 113 115 119 120 122 122 124 122 118 114 113 105 99 94 91 78 69 63 57 52 46 42 41 38 37 36 31 32 33 30
111 111 111 113 114 115 117 116 118 121 122 119 117 113 112 111 110 104 101 88 91 83 79 72 63 58 52 48 44 41 38 34 33 33 31 27 27 26
116 115 114 115 117 118 118 116 113 112 111 110 107 108 108 103 99 91 89 89 74 72 68 65 60 54 46 41 37 34 34 32 29 25 24 24 25 27
111 110 110 109 109 110 108 107 106 108 107 106 106 103 101 96 91 86 81 71 67 66 65 60 57 52 46 38 34 31 28 26 26 27 28 29 30 31
106 107 106 106 105 105 105 105 106 105 102 99 98 95 90 86 82 76 67 63 62 62 63 60 54 49 43 42 40 37 34 33 33 34 33 34 35 34
105 105 105 105 104 104 106 106 104 103 99 90 88 86 83 79 72 64 58 61 58 61 62 57 53 51 46 41 40 40 41 42 41 41 40 39 38 39
103 103 103 103 104 100 98 94 94 94 89 83 83 83 79 73 64 57 58 59 60 61 60 55 54 50 46 43 42 40 41 42 44 43 43 44 44 43
105 105 102 99 97 92 91 91 88 87 83 81 78 75 66 63 56 54 57 59 61 60 57 52 52 52 48 47 47 45 44 44 43 44 45 47 48 49
94 93 91 89 89 86 84 84 81 79 77 72 70 64 57 54 53 53 60 61 59 59 55 52 52 54 50 49 51 50 48 47 47 48 50 51 53 56
85 84 83 83 84 83 82 79 74 71 67 63 59 56 53 50 51 58 61 62 61 59 56 55 56 56 54 53 51 50 49 49 51 53 55 58 62 66
77 78 77 76 75 75 73 70 65 62 58 57 54 49 49 50 56 60 63 63 62 60 60 60 60 59 57 53 55 53 52 52 54 57 60 65 70 72
68 67 66 66 65 64 62 60 59 57 55 51 46 47 51 53 58 63 65 66 62 62 62 61 62 63 60 59 57 56 55 57 60 62 66 71 73 71
63 61 60 60 60 59 58 56 53 52 50 46 45 49 53 56 61 65 65 65 64 64 63 64 65 68 63 62 60 58 59 62 64 68 73 74 70 63
55 54 54 53 52 51 50 49 47 46 48 44 46 53 59 63 63 65 67 67 65 65 65 67 71 68 66 65 63 61 63 63 67 72 74 70 64 59
48 49 49 48 48 47 46 45 46 48 50 50 52 57 62 65 66 67 68 67 66 67 68 71 71 67 67 66 65 66 67 69 73 74 70 64 60 56
44 45 44 45 47 48 49 48 49 53 54 55 57 62 67 67 66 67 68 69 68 70 71 71 68 67 67 66 67 67 69 72 75 72 66 63 57 53
43 43 43 44 46 48 51 51 54 55 56 57 60 62 64 65 65 64 64 67 70 70 70 68 66 65 67 68 68 69 72 75 72 66 62 62 58 51
42 41 42 43 44 45 46 47 49 50 53 57 60 63 64 63 63 65 66 68 66 67 68 67 66 67 69 68 71 71 75 72 68 61 58 58 60 54
46 46 49 49 49 50 49 49 49 50 52 54 56 58 60 63 64 62 62 64 64 63 63 64 64 65 64 67 74 76 71 68 62 59 56 55 56 58
47 48 50 51 51 50 50 52 54 55 56 59 60 60 59 61 62 61 61 62 63 64 65 64 64 63 66 69 73 75 70 61 58 59 57 56 56 57
45 46 49 52 53 52 53 54 55 56 57 58 60 59 59 61 63 63 64 66 67 68 70 70 68 68 68 69 69 70 67 60 57 57 55 52 55 55
49 50 50 51 52 54 55 57 58 59 61 62 63 65 65 67 67 68 71 72 73 73 71 70 70 70 70 67 66 64 63 58 57 58 52 45 47 50

GFSNE_250_spd_084.txt.gz
Wind_Speed
108 109 110 110 109 110 111 109 112 111 112 113 112 113 115 115 113 106 105 104 102 100 99 93 87 79 73 66 60 56 49 44 39 38 37 36 32 30
116 118 119 117 116 115 115 115 114 113 113 112 112 109 108 104 104 104 101 100 100 98 92 85 79 72 66 60 57 52 46 42 38 37 35 33 33 31
118 116 113 111 110 108 106 106 106 106 105 105 103 102 101 102 100 101 98 100 94 89 83 79 72 64 62 55 54 49 41 38 36 34 32 32 30 27
115 113 111 108 108 108 106 105 105 106 105 100 100 99 99 98 97 98 96 90 86 79 77 72 65 58 57 55 52 46 42 36 34 30 27 25 25 26
112 111 111 110 109 108 108 105 103 102 102 99 98 97 97 97 97 93 89 85 78 75 74 66 56 56 56 56 51 44 42 40 37 36 32 32 31 31
112 111 111 111 111 109 106 105 103 100 100 99 98 98 99 95 89 85 83 77 74 72 64 58 54 54 55 54 47 42 41 38 38 38 40 39 37 38
110 107 106 105 104 103 101 100 100 100 100 99 99 98 90 85 81 79 76 71 69 62 57 51 53 55 54 51 47 44 43 40 38 36 38 39 42 44
108 107 107 107 105 105 104 103 103 103 99 91 89 87 81 77 72 70 65 66 59 52 51 50 53 54 54 49 46 43 45 45 43 40 38 39 40 41
109 107 105 102 101 98 95 93 91 89 87 85 81 80 75 73 71 67 61 57 52 49 51 49 55 55 55 50 46 46 49 49 46 45 43 42 41 42
96 95 94 92 89 87 85 83 82 79 77 76 74 74 71 67 63 58 54 53 49 48 50 54 56 57 56 54 50 49 49 47 46 44 45 45 46 46
90 88 86 84 81 79 76 74 74 72 71 69 67 66 62 59 55 52 52 50 48 48 53 58 57 58 61 58 53 53 52 51 48 45 47 47 49 49
83 81 80 78 75 73 71 69 67 66 63 61 59 57 56 54 53 50 48 46 46 53 57 59 60 63 63 59 57 55 57 56 52 49 50 52 52 52
75 73 72 69 68 67 66 64 62 60 58 57 56 55 54 52 49 47 48 47 53 56 57 60 63 64 64 62 60 59 60 59 54 53 56 56 57 58
61 60 59 59 59 59 58 57 55 55 54 54 54 52 50 47 46 44 48 53 56 59 61 64 64 65 65 64 63 61 63 61 57 58 58 59 60 61
51 51 50 50 50 49 50 50 47 47 46 45 46 45 43 44 48 50 53 55 61 64 66 65 63 64 65 65 64 64 64 60 60 59 61 62 63 65
45 45 45 44 43 43 43 42 43 45 45 45 44 46 49 49 53 56 60 62 63 65 66 66 65 65 67 67 68 65 62 60 60 62 64 64 65 68
40 39 38 39 40 41 42 42 42 44 45 48 49 49 52 55 58 62 63 64 65 65 66 66 67 67 68 69 66 62 60 60 61 62 64 66 68 69
41 38 38 37 36 37 38 39 41 43 46 48 50 53 54 57 59 60 60 60 61 64 64 65 66 69 69 65 62 61 60 62 63 64 65 69 72 68
42 38 38 39 39 40 41 41 44 46 48 48 48 48 48 49 50 50 52 55 57 60 63 65 65 64 65 65 65 65 66 68 70 69 69 71 73 68
42 41 40 42 44 43 45 49 49 48 48 47 48 49 51 53 55 55 56 59 60 61 61 61 62 65 67 69 71 72 73 74 71 71 71 70 69 65
42 44 44 42 44 45 48 50 51 53 53 53 51 51 52 54 56 56 57 59 60 62 64 65 68 70 72 74 78 78 75 72 70 69 69 67 63 63
44 44 44 44 44 46 47 49 52 54 55 56 58 58 59 60 62 63 64 65 66 69 71 73 74 75 75 74 73 74 73 70 67 66 65 59 58 61
46 47 48 49 49 50 51 52 55 58 60 62 64 65 67 68 69 71 71 72 73 74 74 72 71 71 71 68 68 69 69 67 66 64 60 53 54 55

GFSNE_250_spd_087.txt.gz
Wind_Speed
112 114 118 121 118 118 119 121 122 120 116 116 116 110 107 101 99 98 97 95 95 92 90 88 89 88 83 76 67 65 60 54 49 46 40 36 32 29
122 126 120 121 127 125 123 122 120 122 119 115 111 105 101 101 100 96 96 95 92 91 88 87 87 84 78 70 64 61 56 50 49 43 37 34 33 30
123 127 131 130 126 127 129 126 121 118 113 107 105 103 102 100 99 93 93 90 90 87 86 87 83 77 70 63 60 56 53 49 47 41 36 34 32 31
133 135 138 130 134 128 121 118 114 111 105 104 103 101 97 96 94 92 90 90 90 89 86 80 74 70 63 59 56 51 50 46 45 39 37 35 33 33
136 136 138 129 122 119 116 112 107 105 102 99 101 98 95 96 95 94 92 92 89 85 78 74 67 64 55 52 49 47 48 46 45 39 36 34 34 35
127 123 121 119 116 114 111 108 106 103 101 101 101 102 100 98 95 94 90 86 81 77 71 66 63 59 52 47 45 48 46 45 43 41 39 38 35 35
121 118 115 113 112 111 109 108 106 106 106 105 102 100 97 92 87 85 82 76 72 69 65 61 60 56 48 45 44 46 46 44 44 42 43 41 40 39
114 113 112 112 111 111 111 110 109 105 100 94 89 86 83 80 78 77 74 70 66 62 61 59 53 50 46 44 44 47 48 46 45 41 41 42 43 41
113 113 113 113 112 109 105 100 95 91 87 84 80 77 75 73 71 69 68 64 60 56 53 51 48 47 45 45 45 48 49 49 49 44 43 43 43 43
109 108 105 102 98 95 94 90 87 83 81 78 76 72 69 66 64 62 58 56 55 51 48 45 46 45 45 46 48 51 52 53 52 47 45 46 47 46
100 99 97 94 91 89 88 84 83 80 76 72 68 66 63 62 59 56 51 51 49 47 46 47 47 45 46 49 51 53 54 55 52 50 47 49 50 48
95 94 92 87 83 80 77 73 69 67 65 64 61 59 58 55 53 52 49 48 47 47 49 46 45 46 50 52 52 53 55 56 55 52 52 53 54 51
80 78 74 70 67 65 63 60 58 58 57 56 56 55 53 53 52 50 49 48 49 46 44 45 48 51 53 54 54 56 59 53 55 53 55 55 55 54
64 62 60 59 58 56 54 52 50 49 48 48 48 49 50 50 49 49 47 46 46 48 49 52 50 52 54 56 59 60 62 59 57 58 59 58 56 55
53 53 52 50 49 48 47 45 44 44 43 42 42 41 41 42 43 43 44 45 48 48 51 52 53 54 56 61 63 63 61 60 60 61 61 58 56 53
50 48 46 44 41 40 39 39 39 40 40 40 39 40 41 43 43 43 45 47 50 51 54 55 56 58 59 62 63 58 59 62 62 62 61 57 57 58
49 45 41 40 40 40 39 38 38 38 37 38 37 39 40 42 42 46 50 51 52 56 58 60 61 62 62 60 60 59 60 59 60 61 60 60 61 63
48 43 40 40 40 40 39 36 35 35 36 37 38 40 41 43 44 45 45 47 50 52 54 57 57 56 58 60 61 63 62 59 60 62 63 66 66 67
45 42 40 40 40 41 40 39 38 39 41 43 44 45 45 46 46 46 47 50 52 53 54 56 58 60 63 63 63 64 62 62 64 66 68 71 75 73
43 43 41 41 41 41 41 42 42 42 45 47 48 49 48 47 48 49 49 50 51 53 55 56 58 60 61 63 66 67 67 68 70 73 74 73 72 73
42 44 44 44 44 43 43 43 43 43 44 47 49 51 52 53 54 55 56 57 58 60 62 63 63 65 67 69 73 75 75 74 74 73 73 72 70 71
43 44 45 45 45 44 44 44 45 46 48 50 52 54 55 57 61 63 65 66 68 70 71 73 73 72 75 75 78 78 77 74 71 71 71 68 67 68
47 46 46 46 46 47 48 49 50 51 52 54 56 59 61 63 63 65 66 67 69 70 71 72 72 72 72 72 73 74 71 71 69 68 67 64 64 65

GFSNE_250_spd_090.txt.gz
Wind_Speed
105 104 117 118 117 113 112 112 115 112 115 119 126 125 134 127 123 115 106 100 93 88 85 85 82 81 81 78 77 74 69 63 55 47 45 43 38 32
126 124 124 120 117 113 113 115 119 126 129 131 132 133 128 119 110 104 100 95 93 88 85 86 86 81 79 76 71 70 64 59 48 43 42 40 37 31
128 126 122 123 116 116 125 132 132 138 139 133 135 131 121 112 107 101 97 96 92 91 90 88 84 80 77 73 67 64 58 53 45 42 39 39 34 31
126 121 125 129 132 138 143 144 139 138 140 144 128 122 115 107 102 98 95 94 94 92 88 83 79 76 72 67 61 58 51 48 43 41 40 39 35 30
131 139 143 145 145 144 144 144 145 143 136 131 125 116 109 103 100 97 97 95 91 87 79 76 73 69 65 60 58 53 48 46 42 39 40 37 36 35
145 146 147 150 152 148 143 138 134 129 126 121 114 109 104 101 99 96 91 86 80 76 74 71 67 63 59 56 54 47 45 43 39 38 39 37 37 35
152 155 148 143 140 136 132 127 123 120 117 115 108 105 103 97 90 85 81 77 73 70 68 64 61 58 54 52 49 43 42 42 39 40 40 38 36 36
143 140 136 132 128 126 124 122 120 114 109 106 103 96 92 89 84 77 73 68 66 64 63 60 56 54 51 48 44 42 42 40 39 42 42 40 40 41
134 131 128 126 125 122 118 113 110 105 99 95 92 87 84 83 77 74 71 65 60 58 56 53 52 50 46 44 43 42 42 42 39 43 45 45 44 43
125 122 118 115 112 110 106 102 99 95 93 89 84 79 76 74 69 65 62 59 56 54 52 51 50 48 45 43 43 42 42 40 41 44 46 46 44 46
108 105 104 102 100 100 97 93 91 85 80 73 68 64 62 61 60 58 55 53 51 50 50 48 47 45 44 44 44 43 43 43 44 46 47 46 45 44
97 96 95 94 92 90 87 83 78 72 66 60 57 54 52 51 50 49 49 49 48 47 47 47 44 45 43 43 46 44 45 45 47 49 51 50 50 52
88 85 82 81 80 77 72 68 63 58 55 51 48 46 45 43 43 42 43 45 45 45 46 47 46 46 48 47 46 48 49 49 48 50 51 53 57 59
75 72 69 67 65 63 60 57 54 52 49 47 45 43 41 39 38 38 39 39 40 42 43 44 44 43 43 45 47 47 47 48 51 51 54 55 57 58
61 60 59 59 58 57 53 51 50 48 45 43 42 42 41 39 38 37 36 37 37 38 39 39 39 40 42 44 44 48 50 52 54 56 58 58 58 58
54 54 53 53 54 52 50 47 45 44 43 41 39 37 37 36 35 36 37 37 38 40 41 42 43 46 47 48 50 53 56 58 59 61 62 61 60 57
52 51 50 51 50 49 49 49 48 46 42 41 39 37 37 36 36 37 37 37 38 40 40 43 47 50 52 53 55 57 60 61 62 61 61 61 59 61
51 50 49 48 48 48 48 48 47 44 42 41 40 40 39 39 39 40 41 41 41 42 42 43 45 48 51 53 55 55 55 55 57 60 63 65 63 62
51 49 48 47 48 48 47 46 45 44 42 42 42 42 43 44 45 45 45 46 44 43 45 47 49 50 54 56 57 60 59 58 60 62 63 66 68 66
50 49 47 46 46 45 46 46 45 44 44 43 43 42 44 45 44 43 43 46 48 49 50 50 51 53 56 58 61 64 63 63 65 66 67 70 73 74
49 48 47 46 46 47 47 47 47 46 45 45 44 44 44 44 46 47 48 50 52 55 58 61 62 64 65 67 70 72 73 73 74 74 75 76 78 80
50 49 49 48 47 46 47 47 47 46 44 44 43 45 46 47 48 49 51 56 60 62 64 64 64 65 67 68 70 71 73 74 73 74 75 75 76 76
50 50 51 50 49 48 47 47 47 47 47 47 48 48 49 50 52 55 56 59 61 63 64 65 64 66 65 64 64 64 64 65 64 64 65 66 68 71

GFSNE_250_spd_093.txt.gz
Wind_Speed
100 105 108 111 114 115 115 110 102 120 123 115 128 129 127 119 124 132 135 136 131 119 115 108 96 89 84 83 80 75 68 65 62 60 52 46 40 36
110 118 116 117 114 118 125 130 128 131 125 122 132 131 128 130 137 138 142 128 121 111 103 94 89 88 86 82 75 69 65 62 57 53 47 44 36 35
115 118 113 123 117 118 128 126 131 128 125 137 147 137 136 136 137 142 127 118 110 103 98 94 90 87 79 75 65 65 61 57 52 49 46 41 34 34
126 129 123 131 134 131 129 131 138 143 142 150 141 139 141 141 143 130 116 110 105 100 93 90 86 79 72 69 64 61 57 51 47 46 43 36 34 35
130 129 131 130 129 134 138 141 145 149 147 144 149 150 147 146 132 122 115 107 100 97 90 83 77 71 68 64 61 56 52 47 43 42 39 35 33 33
135 137 136 138 143 143 150 150 149 146 149 149 140 136 135 130 121 114 107 101 94 87 80 75 71 65 63 60 55 51 48 45 40 37 38 34 34 34
141 144 147 150 153 149 147 149 154 153 146 143 140 132 124 116 106 102 96 91 88 82 75 70 65 62 57 55 52 47 45 42 38 38 38 36 34 35
154 152 149 152 153 154 157 153 147 146 141 132 125 119 110 104 99 94 89 82 77 70 66 63 58 55 54 51 47 46 42 39 36 36 39 36 35 37
152 155 155 155 153 151 147 141 131 125 122 119 112 105 99 94 91 83 75 67 63 61 58 56 51 49 47 47 46 44 40 38 36 38 39 38 37 37
149 148 142 138 134 129 124 119 115 113 107 103 100 94 87 80 72 65 59 54 53 50 48 47 46 46 46 44 41 39 38 38 39 40 40 38 38 40
128 126 123 119 117 113 110 109 103 100 96 94 87 80 71 63 57 53 49 46 43 41 41 43 43 42 40 39 38 37 38 38 41 42 41 41 41 42
113 113 110 106 103 101 97 94 91 88 84 79 72 64 57 52 48 44 41 39 39 38 38 40 40 40 39 38 37 38 40 42 43 47 45 43 45 47
101 99 97 93 90 88 86 82 79 74 67 63 60 56 51 47 43 40 38 36 35 35 35 36 37 36 36 37 38 41 43 44 44 48 51 50 51 50
92 90 85 81 77 75 72 67 63 62 58 55 52 49 46 43 41 39 37 36 34 34 34 34 34 36 38 39 40 42 44 46 44 43 47 46 47 48
81 76 73 70 66 61 60 58 55 53 51 51 49 47 45 43 41 39 38 36 35 35 35 34 35 37 37 38 39 39 40 39 43 44 46 49 51 53
68 65 62 59 57 54 53 53 50 49 48 49 48 47 45 44 42 40 39 38 37 36 36 36 36 36 37 39 40 41 43 45 46 48 51 53 56 58
59 58 56 53 51 51 51 50 50 49 49 48 47 46 46 44 43 41 40 38 36 35 35 35 35 36 37 39 40 42 45 47 50 53 56 58 60 61
57 55 53 52 51 51 51 51 50 49 48 47 45 43 43 42 42 42 41 41 40 41 41 41 40 42 42 43 44 45 47 49 51 54 57 59 60 61
55 54 53 53 52 52 51 50 48 47 46 46 45 44 43 42 43 43 43 44 43 44 44 43 42 41 44 45 47 49 49 51 54 57 60 62 65 65
56 55 54 53 52 51 49 48 47 47 46 46 45 44 44 44 44 43 43 45 44 42 42 43 44 46 48 50 52 55 56 59 60 63 65 69 72 73
58 57 55 52 51 51 49 48 48 47 47 46 46 45 44 44 44 44 44 44 44 46 46 46 47 51 55 58 60 59 58 60 61 64 68 70 73 76
59 58 56 54 52 51 50 48 48 48 48 48 48 47 46 46 45 44 44 45 46 48 48 50 54 57 58 58 60 61 60 60 61 61 62 62 65 68
59 59 58 56 53 50 48 48 47 48 48 49 50 50 50 49 49 47 47 48 49 52 53 55 56 58 60 61 60 60 56 54 54 54 56 55 56 57

GFSNE_250_spd_096.txt.gz
Wind_Speed
88 91 94 98 101 97 101 98 99 99 97 105 108 103 121 126 123 122 126 126 133 138 132 137 132 114 105 102 91 84 79 74 69 60 55 52 48 41
98 96 97 97 100 101 98 108 96 106 101 116 126 131 131 130 132 133 135 139 143 139 144 139 116 104 99 90 86 80 73 64 61 54 53 49 43 39
101 100 95 100 104 107 110 117 112 122 127 128 133 130 134 135 137 138 143 145 146 144 142 116 107 100 94 88 78 70 66 57 56 51 51 46 39 37
113 119 114 105 111 121 127 129 134 136 135 135 135 137 142 145 148 150 140 144 143 126 111 105 96 90 83 77 70 65 58 53 53 47 45 41 37 34
114 118 118 124 131 136 136 138 140 139 137 143 145 148 148 150 150 143 145 135 117 106 101 97 92 86 79 72 64 58 55 53 50 48 41 39 35 34
138 139 138 136 137 138 143 143 143 140 141 144 143 142 147 144 143 139 127 114 106 101 96 93 86 80 71 64 58 56 51 47 45 44 41 39 36 36
144 142 141 141 143 145 143 142 146 146 146 147 148 147 151 147 134 119 109 105 99 96 92 80 71 64 59 53 49 46 45 43 42 42 38 38 35 36
149 146 147 150 149 145 148 148 149 152 148 148 152 144 133 126 115 110 103 98 94 85 73 62 56 51 49 44 42 42 41 41 41 39 37 37 37 39
142 143 145 144 146 149 152 151 150 151 155 145 133 124 116 112 106 101 97 91 79 66 56 50 46 42 40 39 38 37 38 40 39 37 37 38 41 40
150 149 149 152 153 154 153 154 156 146 133 127 116 111 106 101 98 93 85 72 60 55 48 42 39 37 35 34 36 37 37 38 38 37 37 39 42 43
151 154 154 155 154 155 151 143 135 127 116 110 105 101 97 92 87 77 66 58 52 46 41 37 35 34 33 34 35 34 34 33 34 35 36 38 43 45
159 161 155 151 147 138 131 122 116 109 102 97 95 91 85 77 69 61 55 49 44 39 36 33 31 31 31 31 32 33 32 33 34 37 38 38 43 49
144 137 132 130 124 118 112 107 101 95 93 88 84 78 70 63 58 53 49 45 40 36 34 32 31 31 30 31 32 32 34 35 36 38 39 40 44 47
121 120 116 113 108 104 99 94 89 87 83 77 70 64 59 54 51 49 45 41 38 36 34 32 30 29 30 31 32 33 35 37 37 41 44 47 47 51
109 105 102 100 97 93 89 85 80 77 72 65 59 54 51 50 48 46 42 40 38 37 35 35 33 31 30 30 33 34 36 37 39 42 45 49 51 55
97 96 95 93 89 84 78 73 67 64 59 56 52 51 50 50 49 46 43 42 39 38 36 35 34 33 33 33 34 35 35 36 39 41 41 43 46 49
90 89 85 81 76 71 66 61 59 57 54 52 51 50 49 50 48 45 44 42 41 39 37 35 33 33 33 34 34 35 36 37 40 41 43 46 49 51
83 81 75 71 66 60 58 57 54 54 52 51 51 50 50 49 46 46 43 42 41 41 41 40 39 38 40 41 41 42 43 45 46 46 48 50 51 53
77 72 67 62 59 56 55 54 54 52 51 52 51 50 48 47 47 45 42 41 42 42 42 43 41 42 43 42 41 42 43 46 47 48 50 53 56 56
72 67 63 60 58 55 54 54 53 52 52 51 50 48 48 48 47 44 43 44 44 43 43 44 43 45 44 43 44 44 45 48 50 53 57 60 62 64
67 64 62 59 57 55 54 54 52 52 51 51 50 49 48 47 46 46 46 46 45 45 46 45 45 46 46 48 48 48 50 53 57 59 59 60 63 66
64 63 61 58 57 56 54 54 54 53 53 52 51 49 48 48 48 47 48 48 48 47 47 46 46 49 50 50 52 55 57 58 58 58 60 61 62 62
63 61 60 59 57 57 56 54 54 54 54 52 50 49 49 50 49 49 50 50 51 51 50 49 51 53 54 57 58 57 57 59 59 59 58 58 56 56

GFSNE_250_spd_099.txt.gz
Wind_Speed
91 93 90 95 96 94 97 98 101 93 93 97 98 94 105 106 98 108 120 122 132 134 137 132 135 136 129 114 100 89 80 78 71 64 61 53 49 45
87 91 93 93 96 95 99 100 103 103 97 105 103 108 110 102 109 120 125 136 139 137 144 134 136 130 109 102 93 84 80 75 68 58 55 50 45 42
95 96 100 97 99 99 99 101 103 105 107 104 105 113 107 118 123 133 143 142 141 142 141 133 134 119 101 92 87 80 76 70 65 57 51 45 43 38
97 103 104 104 103 102 106 105 102 102 115 118 111 117 123 133 142 144 138 147 142 132 137 131 111 101 95 88 81 78 71 63 55 51 47 43 44 35
108 102 103 102 104 104 117 127 121 114 120 123 128 132 140 144 143 149 148 136 138 135 132 114 104 96 90 84 79 68 59 52 50 47 45 40 43 38
114 113 114 111 119 122 123 124 126 128 132 139 142 146 148 146 147 139 139 138 139 128 117 105 98 91 86 75 63 55 49 46 44 42 40 39 39 37
130 131 130 132 135 137 139 141 143 144 147 147 147 149 150 145 141 137 143 141 129 115 105 99 93 88 74 60 52 45 41 40 39 38 37 36 36 36
144 143 144 142 142 140 138 142 141 138 143 141 139 137 140 145 144 139 131 121 114 102 97 93 87 73 61 54 46 40 36 36 35 35 35 34 35 36
150 153 155 151 148 141 139 140 140 141 142 144 147 145 145 152 142 137 124 112 103 95 91 83 72 62 53 46 41 35 33 31 31 32 33 33 33 35
145 147 146 148 146 145 145 145 146 151 151 146 146 148 149 143 133 113 107 101 93 87 81 70 60 51 46 41 37 33 31 33 32 31 32 33 34 34
155 157 158 156 153 153 154 149 156 154 154 154 155 147 133 117 111 105 96 88 83 76 67 57 49 45 40 36 33 31 30 30 30 30 30 32 34 35
163 157 158 157 157 153 151 156 158 160 157 148 131 118 110 105 98 91 84 79 73 65 56 48 41 37 34 32 30 29 29 30 30 30 31 32 34 38
162 161 158 157 158 159 162 159 150 138 126 119 112 106 100 91 85 79 74 67 61 56 49 43 38 34 30 27 26 27 28 30 32 33 33 34 36 38
169 167 165 163 156 143 134 129 121 117 113 106 99 93 87 81 74 70 64 58 53 48 44 40 37 34 29 26 25 26 27 29 31 33 35 37 38 40
141 140 135 127 121 117 113 111 107 102 100 93 87 82 74 68 63 59 55 52 48 45 43 40 37 34 31 29 26 26 27 28 29 31 33 35 37 40
124 119 114 110 108 104 103 98 95 90 87 82 74 68 63 59 54 51 49 47 47 45 42 40 38 35 32 31 30 30 28 29 30 32 34 36 40 44
112 107 104 101 97 93 90 87 84 80 75 69 65 61 56 52 49 48 47 47 48 46 43 41 39 36 34 33 33 33 32 32 33 34 35 37 40 42
101 99 94 87 83 81 78 78 76 70 65 62 58 54 50 47 47 47 48 48 48 47 44 41 40 37 36 36 35 35 36 36 38 39 40 42 43 44
92 91 87 83 81 77 75 72 70 64 59 56 52 51 48 47 47 47 47 48 48 47 44 42 40 38 38 38 38 39 39 40 41 43 43 45 46 46
87 86 83 81 77 73 69 68 65 60 56 53 53 51 49 47 47 47 47 47 48 46 44 43 42 40 39 40 41 39 41 44 45 44 46 47 49 50
80 81 80 78 77 74 68 64 61 58 55 54 54 53 50 48 48 47 47 47 47 46 45 44 45 44 43 44 43 42 42 43 45 47 50 51 52 55
77 78 77 75 73 69 64 60 57 56 54 54 54 54 52 51 50 49 48 48 46 46 46 46 46 45 45 45 44 45 46 47 49 51 52 55 58 62
74 73 74 72 70 64 60 58 56 56 55 54 54 55 54 53 51 52 50 49 48 48 46 45 47 48 49 49 50 50 52 53 54 56 58 59 60 62

GFSNE_250_spd_102.txt.gz
Wind_Speed
91 92 90 91 95 94 91 90 90 90 93 91 95 96 92 94 95 98 97 92 93 102 111 121 125 127 135 143 130 119 115 96 83 75 68 60 53 47
92 93 94 97 96 98 97 93 96 89 94 89 91 96 103 96 95 94 95 100 115 120 125 129 131 139 143 132 127 111 97 86 76 71 64 57 49 44
97 99 100 101 102 96 102 99 96 89 92 96 97 102 101 97 91 102 104 117 120 125 130 135 140 130 136 132 112 97 85 78 73 63 56 49 45 41
105 108 105 96 93 96 100 94 96 97 103 98 107 98 101 107 107 113 115 123 136 139 132 128 133 132 130 116 103 87 81 73 63 52 46 43 39 37
94 102 94 101 103 103 104 99 105 101 107 108 109 112 110 112 124 130 137 141 145 142 133 140 138 129 120 103 92 85 76 61 49 43 41 38 35 35
104 98 104 105 100 106 104 111 106 106 105 108 115 121 124 135 142 142 143 142 136 138 134 133 129 115 99 94 86 78 62 51 44 40 36 33 32 34
110 111 112 107 108 113 103 106 110 119 129 127 132 137 144 139 139 143 138 142 144 135 131 129 112 98 92 86 78 65 53 45 39 36 32 31 32 33
113 116 109 116 118 121 114 117 120 125 133 141 145 144 150 138 150 144 149 146 139 135 132 112 101 91 84 79 68 54 46 41 36 33 29 30 30 31
138 133 126 118 118 121 125 134 139 146 147 149 155 153 155 141 142 149 142 142 131 132 110 96 88 81 78 70 56 48 42 36 33 30 28 29 30 33
123 123 128 133 133 139 143 146 145 149 152 152 161 156 150 153 156 145 136 134 129 104 96 89 82 76 70 58 50 45 39 34 31 30 29 30 31 35
140 145 146 150 148 153 155 156 157 156 157 152 155 151 150 149 140 140 127 117 102 92 87 83 75 66 56 51 46 40 35 33 30 29 29 31 31 34
151 155 161 163 163 168 163 165 163 167 164 161 154 151 148 137 136 124 113 101 91 85 80 74 62 53 47 43 41 38 35 32 30 29 30 31 33 33
174 174 171 171 175 176 180 181 169 164 160 149 157 145 140 134 120 106 94 87 81 77 69 60 52 45 41 38 36 36 34 31 30 30 30 33 34 36
174 173 176 180 176 175 169 162 161 159 150 145 136 127 120 112 105 95 85 79 72 64 56 50 45 41 39 37 36 34 32 31 31 30 31 32 33 35
140 141 142 145 147 142 140 138 134 131 126 119 113 110 103 96 89 82 74 66 59 53 48 45 42 38 36 37 36 34 32 30 31 30 30 32 33 35
117 120 122 122 122 121 119 118 116 113 106 103 98 95 90 80 74 66 59 54 51 47 43 41 40 38 37 37 36 34 32 30 30 31 31 32 33 34
99 105 106 107 106 104 103 101 100 95 91 86 82 78 74 70 62 56 52 49 46 42 40 39 39 39 38 37 35 34 32 32 31 31 32 33 34 35
83 88 91 93 93 91 89 86 83 80 76 71 70 69 66 58 54 50 47 45 43 40 40 40 40 39 39 37 36 34 34 33 34 35 35 35 35 36
77 81 84 86 83 83 81 80 76 73 69 67 65 61 57 52 51 47 45 43 42 41 41 39 39 38 37 37 36 36 36 35 35 37 38 39 41 41
72 72 73 73 71 73 72 73 70 67 64 61 59 56 55 52 51 47 44 43 43 42 41 39 37 38 39 38 39 36 38 38 38 40 41 42 42 42
61 64 66 67 67 68 68 67 65 63 61 60 60 57 56 54 52 48 44 45 46 44 42 40 38 41 40 41 41 39 38 40 42 42 43 43 43 44
57 59 61 62 61 62 63 64 63 62 64 62 63 59 56 53 51 48 47 48 49 46 44 42 41 43 43 43 42 41 41 41 42 43 43 44 45 47
55 57 58 59 58 57 60 61 61 63 63 62 57 54 52 52 51 49 49 49 50 49 48 46 44 45 46 46 44 43 43 45 45 46 48 49 51 51

GFSNE_250_spd_105.txt.gz
Wind_Speed
84 78 82 87 87 87 85 88 89 90 90 91 100 101 101 98 104 95 92 85 85 85 92 91 92 91 107 118 131 144 137 135 125 106 84 76 68 63
87 87 87 87 88 86 86 87 92 94 98 100 100 102 106 105 95 99 93 88 90 96 92 87 99 101 126 132 137 137 138 141 112 89 77 71 64 58
93 90 92 93 91 93 91 100 100 109 106 102 98 104 100 98 93 93 92 92 91 93 98 102 109 125 132 136 142 149 144 120 94 80 72 65 56 48
94 92 94 96 95 101 107 108 110 108 109 105 103 101 95 96 97 98 96 97 100 99 103 113 125 125 136 140 151 137 123 99 83 73 65 55 45 39
103 105 107 111 111 110 106 107 109 108 111 103 100 96 98 103 101 99 107 103 106 116 113 117 130 132 138 149 147 118 100 84 73 66 57 45 38 34
110 109 106 106 106 109 112 106 103 103 100 103 109 103 105 108 111 106 112 112 123 113 119 126 132 139 150 153 124 107 87 74 68 60 47 37 31 27
104 107 108 105 111 108 108 114 116 114 108 109 108 106 113 110 111 114 128 122 121 124 129 139 144 153 147 151 110 89 77 71 62 48 40 33 28 24
110 106 109 113 105 111 112 114 116 119 113 113 107 120 114 120 134 127 125 134 129 133 141 145 150 137 133 115 93 83 71 64 52 40 35 30 25 23
133 127 126 125 127 130 123 122 121 115 126 126 129 123 128 130 133 130 131 137 139 145 146 148 147 142 122 94 83 73 65 57 44 35 31 28 23 24
122 125 122 124 124 126 123 122 134 126 124 129 129 133 136 137 132 134 141 145 150 148 139 140 134 114 92 82 76 67 58 48 39 32 29 27 26 26
131 137 136 132 132 135 136 140 137 143 141 141 143 142 147 141 148 148 155 150 155 137 142 124 108 96 81 72 67 59 51 42 36 31 28 26 26 28
157 155 164 165 151 159 153 153 162 157 156 158 155 157 158 157 159 153 159 156 143 127 107 89 85 78 68 61 57 50 45 39 35 30 28 27 27 29
170 163 167 156 155 158 165 158 162 161 159 150 144 155 157 146 146 140 129 116 104 90 83 77 72 64 58 54 49 43 39 37 34 30 28 29 29 31
135 136 132 129 133 133 132 128 125 123 126 131 130 123 120 116 110 105 98 88 78 75 73 66 60 55 50 47 41 39 36 34 33 32 31 30 30 32
131 130 132 131 127 128 129 128 122 121 114 111 105 102 100 96 90 84 75 72 66 64 59 55 51 47 44 41 38 36 34 32 31 32 32 31 31 32
124 127 125 118 116 118 122 125 120 111 104 98 96 87 85 79 73 67 63 60 56 52 49 47 45 43 39 38 36 34 33 32 32 32 32 32 32 33
91 94 94 94 93 92 91 92 90 87 86 83 78 74 70 63 60 56 54 52 48 45 44 43 42 39 37 36 34 34 33 34 33 33 33 33 32 33
73 74 73 73 73 73 73 75 74 74 73 72 67 63 59 56 51 50 50 48 43 42 41 41 39 37 36 35 35 34 34 34 34 34 34 35 35 35
64 66 67 67 66 65 66 69 66 67 70 65 63 59 53 48 46 47 48 46 43 41 40 40 39 37 35 34 35 32 34 34 34 34 35 36 36 37
56 59 58 59 58 59 60 64 63 66 65 60 58 55 49 46 46 48 49 46 43 42 41 41 39 36 37 36 34 31 34 36 36 36 36 37 38 40
50 52 54 54 55 55 56 60 61 58 56 55 55 56 50 48 48 49 49 47 45 44 43 42 39 41 40 38 35 34 36 37 39 39 38 39 40 42
46 48 50 51 52 51 52 52 52 51 52 54 53 52 51 51 51 51 51 49 49 49 46 44 44 44 43 44 41 39 38 38 40 42 41 41 43 44
43 45 46 48 46 46 47 48 49 49 49 53 57 58 54 51 50 50 52 53 51 51 48 46 45 46 47 47 46 44 42 40 42 44 44 46 45 44

GFSNE_250_spd_108.txt.gz
Wind_Speed
78 77 81 84 86 89 91 89 88 84 85 85 84 86 86 88 89 87 97 96 104 101 94 97 89 91 92 87 96 89 90 98 104 114 119 132 118 92
92 86 93 90 89 93 93 91 87 88 90 88 91 96 94 90 90 101 104 104 100 103 97 94 90 91 93 91 89 97 97 106 110 118 125 139 101 85
100 104 104 104 101 96 95 93 95 95 94 93 91 92 92 94 103 103 103 98 106 103 94 94 102 98 96 97 96 99 109 117 119 128 134 125 92 77
99 104 105 102 103 101 102 107 108 104 100 99 98 102 103 105 105 107 107 95 101 102 102 101 106 100 99 105 102 104 115 116 123 135 144 115 78 69
106 108 107 107 104 101 105 109 106 107 108 110 106 108 109 109 111 111 109 104 103 104 105 102 104 107 107 116 111 122 124 125 131 136 145 97 76 60
103 110 111 111 107 111 110 111 113 116 114 111 112 106 110 110 113 106 101 106 109 111 108 114 115 113 118 119 124 125 129 132 137 148 97 80 64 48
111 113 117 115 118 112 115 113 112 114 111 111 113 106 108 110 108 103 103 115 115 121 115 123 123 121 127 130 126 137 133 135 133 108 82 70 53 40
124 123 117 116 113 111 113 111 116 113 111 112 109 109 109 114 125 125 121 122 120 126 129 125 126 130 135 136 133 139 131 131 118 80 69 57 43 34
118 116 121 119 119 120 120 121 116 118 123 127 126 125 126 123 129 131 129 129 126 124 132 136 137 141 136 138 135 132 130 102 78 64 54 46 36 31
129 129 128 131 129 130 131 134 125 129 129 129 125 127 128 124 127 131 133 134 139 135 140 141 139 136 137 130 117 112 89 70 58 53 46 39 32 28
152 150 149 150 146 147 140 138 131 135 134 137 137 136 132 140 138 137 144 145 142 138 135 139 130 119 117 111 94 79 64 53 51 46 40 33 30 27
152 160 157 159 160 135 139 143 154 152 152 145 144 149 153 146 135 132 141 135 128 128 117 106 108 103 95 83 70 59 50 48 46 41 36 31 29 27
150 144 139 137 133 131 131 132 132 128 122 123 121 117 117 120 119 118 111 112 109 104 99 95 93 85 75 62 53 48 45 44 41 38 33 30 29 27
128 134 140 139 140 140 127 120 120 116 116 117 115 113 110 112 112 112 114 113 103 93 88 85 77 67 55 48 48 45 40 39 37 35 33 30 28 27
103 110 116 118 122 124 123 122 121 122 124 123 119 114 117 114 110 112 103 95 84 82 77 70 60 50 44 45 44 40 37 36 34 33 33 31 28 27
83 85 88 91 97 100 105 109 109 105 108 113 115 112 104 99 95 85 76 70 67 64 59 50 46 42 40 41 39 37 35 35 34 33 32 31 30 30
67 70 71 73 76 80 86 87 86 88 89 89 89 83 86 81 73 67 61 57 56 50 44 44 41 39 38 37 36 35 34 34 34 33 32 31 31 32
59 61 62 62 64 68 69 71 72 73 74 73 72 73 74 67 64 58 54 52 49 43 43 43 42 41 37 35 34 34 35 35 35 33 33 34 33 34
55 56 58 59 59 59 61 64 64 65 62 62 64 66 61 66 56 54 52 47 44 44 44 42 42 41 37 35 36 37 36 36 35 35 35 36 36 37
52 51 53 54 54 54 54 54 55 58 58 60 59 58 58 60 53 52 48 43 42 43 42 42 42 41 38 38 40 38 36 36 35 35 36 37 38 38
49 49 49 50 50 48 48 48 50 50 52 53 54 54 57 58 48 48 43 39 40 45 44 43 42 43 44 41 40 39 39 38 36 35 36 38 39 39
46 45 46 46 47 45 44 45 45 46 48 50 52 55 52 47 45 47 45 42 45 48 43 43 46 47 46 45 42 42 43 41 40 38 36 37 39 40
43 43 43 44 43 42 41 41 42 43 44 47 48 47 47 46 46 46 46 46 47 50 48 46 48 50 50 48 46 46 46 45 45 42 40 39 39 40

GFSNE_250_spd_111.txt.gz
Wind_Speed
83 82 85 83 80 81 83 85 88 90 87 90 91 93 98 92 91 88 86 89 90 89 92 90 91 94 93 101 106 102 91 89 92 89 90 91 95 107
77 73 79 82 85 92 92 94 95 99 94 97 98 96 94 94 94 93 93 93 96 94 100 98 98 101 104 105 97 92 90 92 94 97 100 98 108 113
83 92 96 98 95 96 97 103 103 102 99 99 103 102 104 96 101 98 99 102 100 99 102 104 104 108 107 97 97 93 98 99 100 105 109 110 114 117
90 95 94 98 100 100 98 103 107 104 108 112 110 103 106 105 98 102 101 103 102 103 108 111 104 100 97 97 99 101 106 108 111 113 110 120 119 124
100 98 101 102 104 103 108 107 105 106 113 110 105 102 109 109 106 106 101 102 102 106 101 102 103 100 101 101 105 109 116 116 117 119 119 126 128 122
104 104 108 109 102 107 111 105 99 105 103 105 109 111 111 108 110 106 107 101 103 107 108 105 105 107 109 118 122 118 119 121 120 125 124 122 109 82
105 106 108 115 115 114 114 119 117 117 121 115 113 112 109 110 109 112 109 109 111 108 110 110 111 114 122 124 126 121 123 126 124 119 104 96 82 63
110 113 119 121 124 123 124 123 121 120 114 115 113 121 113 119 120 120 115 116 118 117 119 115 119 125 125 124 125 130 127 123 116 98 88 84 68 54
119 122 126 129 132 130 126 127 128 126 123 121 118 118 119 121 124 124 129 122 124 126 126 127 124 127 127 128 131 127 119 112 93 87 82 75 58 47
134 136 140 141 140 142 141 139 138 136 135 133 132 130 130 133 129 133 133 136 133 134 138 128 129 130 126 126 118 109 103 96 86 80 77 65 49 44
140 142 146 149 154 151 155 154 150 152 148 144 142 143 140 138 136 131 126 131 124 118 111 115 114 113 113 107 103 101 95 87 83 75 67 53 45 39
132 138 140 140 136 134 136 137 131 134 137 135 132 128 124 126 123 124 117 105 105 107 106 105 111 101 99 99 96 96 89 82 73 64 56 47 42 35
133 136 139 138 130 127 131 132 131 129 128 127 124 123 124 124 124 120 114 115 110 113 109 101 94 92 97 94 89 82 78 68 59 53 48 43 38 33
118 116 117 118 117 117 117 116 116 114 116 116 115 119 121 119 119 117 116 114 114 105 103 99 87 87 88 86 79 69 62 55 48 47 43 39 36 32
89 87 86 87 88 88 92 96 97 95 97 101 106 111 111 110 108 107 104 106 102 100 95 91 84 79 75 66 58 52 48 45 44 42 39 37 35 31
73 72 71 71 70 70 70 75 77 78 77 80 84 89 93 95 95 93 93 93 91 87 82 74 69 60 54 48 45 42 42 40 40 38 37 36 34 30
66 64 65 64 64 63 63 65 66 66 66 66 69 73 77 80 82 82 81 80 77 73 65 54 50 46 43 40 40 39 39 38 37 34 35 35 33 31
62 60 61 62 62 61 60 60 59 59 58 59 61 63 64 67 69 70 70 67 70 58 48 45 42 41 39 39 38 39 38 36 33 33 34 35 34 34
57 57 58 59 58 56 55 54 53 53 53 52 52 54 57 60 62 62 61 59 61 45 42 41 40 39 39 40 39 39 39 35 33 34 35 35 35 35
53 52 53 53 50 49 48 48 48 48 48 47 49 49 52 54 55 56 55 53 52 40 40 41 43 44 43 40 43 39 38 35 35 37 37 36 35 36
49 48 49 47 45 44 43 43 43 43 44 45 44 44 47 49 50 51 52 54 47 38 43 45 43 43 45 44 45 38 37 36 37 37 39 37 37 38
48 45 45 44 41 39 39 39 40 41 41 42 42 44 46 47 48 51 53 54 48 40 44 42 42 44 45 46 47 38 40 38 35 35 39 40 38 39
47 43 43 41 38 38 38 38 38 38 39 39 41 42 44 47 49 52 54 52 45 42 45 42 44 44 47 48 49 41 41 41 38 38 38 44 44 42

GFSNE_250_spd_114.txt.gz
Wind_Speed
85 81 81 74 78 84 81 79 83 86 87 81 85 85 89 90 93 89 92 92 96 97 90 90 84 84 88 87 91 91 92 90 90 91 87 88 81 89
79 78 82 84 77 77 79 85 87 84 82 90 93 97 96 93 97 99 100 97 98 95 89 88 95 98 90 97 93 90 93 88 92 89 89 90 87 96
73 74 80 83 88 92 96 94 87 88 92 99 100 101 101 107 110 99 97 99 97 104 104 97 91 92 94 90 89 89 88 92 93 95 97 97 101 101
84 90 94 99 101 96 96 100 103 101 105 109 106 101 108 107 107 112 108 105 109 95 99 97 99 101 93 93 94 91 96 97 100 100 105 108 107 108
87 93 92 96 91 97 98 99 100 103 106 109 108 107 111 108 110 110 112 103 106 100 102 106 105 99 97 99 99 93 97 104 108 111 113 114 113 113
84 89 93 94 99 103 108 111 115 116 117 114 111 104 106 105 100 103 109 105 108 112 111 106 102 103 99 101 103 107 106 109 110 112 113 118 114 105
89 96 100 100 100 102 105 106 110 110 110 114 113 110 109 102 99 105 107 109 113 110 111 117 113 109 109 112 105 107 113 110 114 117 112 103 96 89
98 101 102 105 110 113 119 119 120 122 124 126 126 122 116 116 119 119 117 113 116 122 119 121 119 114 117 120 120 120 115 111 113 106 98 92 86 81
104 107 113 117 120 128 130 132 138 141 142 141 140 139 135 136 131 132 129 121 123 124 128 128 129 127 127 123 121 118 109 106 102 93 89 82 76 68
115 121 124 126 130 134 137 141 140 142 144 145 144 139 137 134 127 130 132 128 126 123 128 132 129 126 120 114 112 99 98 96 89 89 85 78 77 71
106 113 116 120 127 133 131 137 127 127 123 124 126 127 131 130 136 129 127 125 122 122 114 111 111 112 114 112 108 100 97 92 91 89 84 78 77 72
104 112 118 125 128 138 139 143 145 142 143 141 131 125 125 131 126 124 122 119 119 114 109 108 107 106 106 105 97 96 94 91 88 84 78 76 71 69
104 107 115 124 130 133 132 132 130 123 120 118 116 109 111 114 106 112 116 116 116 110 108 106 106 105 106 103 94 92 88 85 82 76 72 70 65 58
92 93 94 101 104 104 103 98 93 92 92 94 92 89 92 87 91 94 101 105 98 100 102 103 103 101 99 96 94 86 81 75 71 66 64 58 52 46
93 96 95 93 92 90 88 84 78 75 76 76 76 74 73 76 74 74 84 84 86 88 88 91 93 92 90 88 85 79 72 64 59 55 52 46 41 37
101 102 95 88 86 82 78 73 68 66 66 65 65 64 62 63 61 65 67 68 71 75 78 81 84 82 80 76 72 65 57 50 47 45 39 36 36 33
100 98 92 87 82 76 70 65 61 61 61 60 60 59 57 55 55 55 56 58 61 65 68 71 71 71 69 63 57 52 44 41 41 36 33 33 32 31
100 94 87 81 76 69 64 59 58 56 56 55 54 53 52 51 50 50 52 53 54 56 59 59 62 61 56 52 47 43 39 38 37 33 31 30 31 32
99 91 83 77 71 63 58 55 52 51 50 49 49 48 47 47 47 48 48 47 48 52 54 55 55 51 47 44 43 40 38 39 35 33 32 30 30 31
94 85 78 73 65 58 53 50 47 45 45 44 44 43 43 44 45 46 46 47 47 48 48 46 45 40 41 41 39 39 40 39 35 36 32 29 30 32
90 81 73 68 60 53 49 46 44 42 40 39 39 39 40 41 43 44 45 45 45 45 44 44 40 36 37 36 41 42 43 40 37 35 33 29 31 34
86 77 70 63 56 50 45 43 41 39 37 36 37 37 38 39 41 42 43 43 42 41 41 38 36 36 35 39 43 42 43 42 37 36 33 29 31 35
83 74 67 59 52 45 42 41 39 38 36 36 37 37 36 37 38 38 38 38 40 41 41 40 38 40 37 40 43 45 43 45 41 39 37 32 31 34

GFSNE_250_spd_120.txt.gz
Wind_Speed
89 91 90 85 79 77 77 68 68 72 79 81 84 88 86 87 90 90 91 91 90 97 91 93 95 94 94 98 102 103 105 96 96 92 92 93 93 91
93 85 77 71 73 72 69 68 73 77 82 84 84 87 86 89 93 96 99 98 98 95 97 98 100 103 105 107 108 108 104 104 106 104 99 105 94 89
69 64 64 62 61 63 64 70 74 80 83 88 92 91 87 94 98 101 102 102 105 105 107 109 111 113 115 115 115 112 112 113 107 107 107 100 93 89
51 48 49 52 55 58 64 73 80 85 87 91 95 94 93 97 100 104 107 109 111 114 117 118 117 115 117 119 120 119 114 113 110 105 103 102 96 93
46 48 51 53 56 61 65 69 74 79 83 87 91 94 100 105 108 111 115 117 117 119 120 121 121 118 119 114 114 115 113 109 106 107 105 104 103 99
49 53 57 61 65 69 70 74 78 83 87 88 94 98 102 106 109 111 113 117 118 121 122 123 123 125 124 123 120 117 113 110 113 111 112 109 105 104
56 62 64 69 73 76 78 83 86 88 93 98 100 104 108 112 118 122 125 124 125 126 129 124 125 124 123 125 118 114 114 109 105 108 104 104 104 98
58 62 68 72 72 77 83 84 85 95 102 101 104 108 109 112 115 117 118 120 122 125 128 126 124 126 120 111 114 113 106 110 105 102 95 96 95 94
71 73 77 82 86 89 93 92 89 87 87 89 93 94 100 104 110 117 121 119 120 120 123 124 123 120 116 113 105 107 104 110 98 102 97 89 92 96
65 70 72 73 75 76 78 81 83 85 90 94 99 105 110 110 110 110 111 112 110 113 113 109 111 107 107 101 97 97 98 96 98 102 95 94 98 102
60 61 65 68 70 72 74 77 82 89 90 91 94 101 105 107 111 115 113 111 105 103 104 97 97 90 92 85 86 82 86 88 92 99 97 96 96 97
62 65 67 69 73 77 82 86 86 92 97 99 103 108 112 112 115 112 108 104 96 90 89 87 78 84 77 75 71 71 69 72 79 88 90 93 92 93
67 70 70 75 76 78 83 89 88 96 101 103 105 111 113 113 108 103 97 89 85 77 77 75 74 74 67 65 67 63 60 59 64 70 75 79 84 87
73 74 76 82 86 90 90 94 97 101 103 106 109 112 109 104 100 92 84 79 74 67 63 64 63 62 58 56 62 62 55 52 53 52 58 65 71 72
77 80 84 88 91 91 90 94 99 103 106 112 113 107 101 97 90 80 75 68 61 57 53 56 56 54 53 56 58 55 55 55 53 49 51 53 56 56
81 85 87 94 95 97 99 100 102 107 111 114 109 100 96 90 80 71 63 59 54 50 49 51 48 49 52 51 51 51 53 49 46 46 46 45 48 50
85 86 89 91 92 95 100 103 106 110 116 108 100 95 90 80 72 63 55 50 47 45 46 42 46 47 49 49 50 53 50 39 38 41 41 40 41 41
84 85 85 89 95 100 104 108 109 114 108 102 93 88 81 72 65 56 48 44 42 40 40 40 43 44 46 47 45 42 40 38 39 39 37 37 36 36
88 87 90 94 99 105 108 111 113 110 101 93 86 80 71 64 57 49 45 40 37 36 38 39 41 43 42 39 40 38 38 39 37 35 32 31 30 31
88 91 94 99 104 108 112 111 108 103 96 87 81 73 65 57 51 45 42 37 33 32 35 36 39 38 37 36 40 37 40 39 36 33 30 30 31 32
93 97 100 103 109 111 111 106 102 98 90 80 74 66 59 52 47 41 38 35 32 31 33 33 33 33 35 36 38 40 39 36 33 31 31 31 31 32
100 102 104 109 110 109 107 103 99 92 84 75 68 60 54 48 42 39 36 33 32 30 29 29 31 32 33 35 38 38 37 33 33 34 33 32 32 34
104 107 108 108 108 104 99 99 94 86 75 68 61 55 49 43 39 36 34 33 31 30 30 31 31 33 36 39 38 40 36 36 35 35 33 33 34 36

GFSNE_250_spd_123.txt.gz
Wind_Speed
82 84 84 83 85 87 90 92 93 93 91 85 77 75 70 68 71 74 81 84 88 88 87 88 89 91 92 95 97 97 98 97 98 102 100 100 101 99
88 89 87 88 90 91 93 89 96 83 68 64 63 62 65 70 74 77 84 88 92 95 99 100 101 103 105 104 103 104 105 104 106 109 107 105 103 102
90 90 88 93 92 92 94 85 71 64 55 56 58 62 68 73 75 79 84 87 91 96 100 102 105 106 107 108 110 111 111 111 112 111 108 107 106 104
86 87 88 89 90 82 72 66 55 54 53 53 58 62 66 72 76 81 86 90 91 94 98 102 104 108 112 115 115 114 115 116 115 115 112 108 107 103
83 83 75 70 64 58 53 53 55 58 61 64 66 70 73 77 82 85 89 92 96 100 105 108 112 114 119 122 120 118 117 121 120 116 111 111 105 103
60 56 53 51 50 52 53 57 60 62 64 67 72 76 77 83 88 93 95 98 101 107 109 107 109 109 108 111 111 110 112 118 114 112 113 109 102 99
50 50 50 50 54 53 60 64 69 75 75 78 78 83 87 90 92 97 104 101 99 103 104 105 106 112 116 119 120 117 117 117 113 110 108 106 102 99
48 52 54 57 61 65 71 74 75 79 78 80 90 90 99 94 94 94 96 94 96 97 104 106 114 112 109 111 113 111 109 113 103 102 99 102 96 91
57 59 64 66 68 70 73 77 80 87 93 95 89 85 86 87 88 89 96 96 99 104 108 110 117 116 113 107 104 102 99 105 94 92 89 85 84 81
62 66 71 71 71 73 77 83 84 83 78 77 81 81 84 87 90 95 99 104 107 116 119 117 116 111 104 100 96 95 92 91 85 84 80 81 74 76
64 68 70 71 71 69 68 69 71 75 78 82 84 89 91 98 103 105 111 104 107 114 120 121 109 99 95 92 89 82 78 78 75 70 69 62 65 61
68 71 68 64 66 69 71 72 75 78 83 87 91 94 100 106 109 113 115 116 118 122 116 109 98 92 85 81 76 73 71 70 68 60 59 57 57 62
64 62 64 68 71 74 76 77 81 84 88 91 94 100 105 108 113 109 110 112 111 108 99 94 89 81 75 73 69 65 60 60 60 53 50 53 53 57
63 66 69 72 75 78 82 85 88 91 92 95 100 102 106 107 109 110 106 107 105 96 91 84 77 73 67 61 62 57 52 49 50 50 49 48 49 49
67 70 74 75 79 84 88 91 94 95 96 97 99 105 104 107 107 104 103 102 96 88 80 73 68 63 59 53 52 51 48 46 45 45 42 39 38 39
75 77 78 80 83 86 89 91 91 93 96 98 103 106 107 110 108 105 101 94 85 78 71 65 59 54 50 46 45 44 43 43 42 38 37 35 35 34
83 84 84 84 85 89 92 94 96 97 97 101 104 108 111 109 103 99 95 86 77 70 62 56 51 46 41 39 40 42 41 41 36 38 34 30 30 31
88 88 88 89 91 94 96 97 100 102 104 105 110 112 111 105 96 94 86 77 70 62 54 49 45 41 38 37 37 37 37 35 34 36 31 30 29 30
94 96 96 96 97 99 100 102 104 108 106 111 111 109 106 96 91 86 77 70 63 55 48 43 41 39 34 33 33 33 33 36 35 33 32 30 32 34
104 105 105 105 104 104 106 109 111 111 110 112 107 103 98 90 86 78 69 63 55 48 44 38 36 33 30 29 28 30 32 33 31 31 32 33 33 31
102 101 101 101 102 102 107 109 109 108 105 102 99 94 89 84 78 69 61 56 48 42 38 36 33 29 27 25 25 26 27 31 33 35 35 32 30 31
94 93 95 97 94 96 96 96 96 96 96 93 89 84 81 77 68 61 55 49 42 37 35 34 31 28 26 23 24 27 31 34 34 34 32 32 32 33
88 89 93 92 89 85 84 84 84 84 83 82 78 77 74 67 60 54 49 42 38 35 32 33 30 28 25 24 25 28 32 33 34 32 33 35 34 33

GFSNE_250_spd_126.txt.gz
Wind_Speed
88 88 88 85 85 85 85 86 86 86 88 89 90 91 92 92 90 88 73 63 59 61 65 69 70 73 76 80 83 87 91 93 95 96 97 99 98 100
91 89 90 90 90 92 92 90 89 90 92 94 91 92 93 91 77 68 62 57 57 59 63 67 71 75 78 82 85 88 89 92 95 97 101 103 106 108
90 94 92 91 92 92 92 91 91 90 90 91 92 87 73 67 60 59 60 59 60 63 66 70 73 77 82 85 89 92 95 98 99 105 104 106 104 102
78 84 88 92 92 93 93 93 91 91 84 83 76 66 59 59 60 60 62 62 66 71 73 77 82 84 88 94 97 100 102 99 101 100 99 97 98 102
71 76 82 84 84 84 86 85 80 81 74 64 59 59 59 60 62 65 69 74 79 80 83 88 91 95 97 101 99 94 96 99 101 99 102 103 104 106
62 65 66 69 69 67 66 67 67 63 62 60 59 62 62 64 70 74 78 81 82 88 91 92 101 101 95 94 90 94 101 103 108 112 118 117 113 107
50 51 51 53 53 55 57 57 59 60 61 63 66 68 72 76 79 79 83 88 92 93 99 100 94 94 93 93 94 99 108 114 112 114 116 118 112 104
39 41 44 48 52 54 56 61 65 66 67 70 75 79 80 85 88 91 89 90 95 92 88 91 95 94 97 99 105 109 114 122 122 117 110 111 104 96
40 45 49 54 56 58 63 66 70 71 73 79 84 87 90 90 91 92 87 83 85 88 90 89 93 99 105 108 108 114 118 117 118 112 102 96 93 84
56 57 59 62 65 69 71 74 75 78 82 87 90 90 90 83 80 81 83 84 86 89 93 91 96 98 103 106 110 115 113 110 106 96 90 87 82 73
62 65 68 70 74 75 75 80 82 83 87 89 92 84 79 79 82 83 84 84 89 94 96 94 101 103 108 110 114 110 106 99 88 81 78 71 65 65
68 71 74 75 76 78 82 84 87 88 84 80 82 82 83 84 84 85 86 90 93 93 99 99 102 105 107 107 106 101 91 84 75 69 65 61 58 58
73 74 74 77 79 76 74 76 75 74 77 79 82 84 86 88 90 92 95 95 96 96 100 102 105 104 99 97 93 83 78 71 64 58 52 49 46 47
73 73 72 71 72 73 74 75 77 78 80 82 84 85 87 92 94 97 99 99 98 101 106 104 96 93 91 89 79 72 66 61 53 49 45 41 38 39
69 72 75 77 79 81 82 83 84 85 85 86 87 89 91 92 95 100 103 105 106 106 104 95 89 88 85 77 70 64 58 52 45 42 38 35 34 37
78 80 82 84 86 87 89 89 89 89 89 90 92 94 96 98 100 103 106 109 108 106 97 88 85 81 76 68 61 55 51 45 41 36 33 32 32 32
84 86 88 91 93 93 95 95 95 95 95 96 96 99 100 101 103 104 109 108 106 95 83 80 78 73 66 58 54 50 44 40 37 33 30 27 29 31
92 93 97 98 98 99 99 97 96 94 92 93 92 96 95 99 97 98 99 97 91 81 77 75 71 64 57 50 48 43 38 36 31 28 26 28 28 32
95 98 98 99 100 99 94 92 92 89 86 88 93 97 96 95 94 96 92 86 78 73 71 69 62 56 49 44 41 36 33 31 26 25 29 31 33 35
97 97 95 94 93 87 86 86 86 86 85 89 90 91 89 89 88 85 79 74 70 67 66 59 54 49 43 39 34 31 28 27 24 27 30 30 29 30
96 94 94 91 84 81 83 81 82 81 80 84 83 82 82 79 77 73 69 64 64 63 56 51 46 41 38 34 30 28 25 24 24 29 29 26 28 28
90 92 91 87 85 81 79 78 76 74 72 75 74 72 71 70 68 64 60 62 60 53 49 44 39 36 34 31 28 26 24 25 27 28 30 28 30 32
83 81 80 78 75 74 72 71 69 69 68 67 65 64 64 62 58 56 59 57 49 46 43 38 34 33 30 28 26 26 25 25 27 27 26 28 29 32

GFSNE_250_spd_129.txt.gz
Wind_Speed
77 78 79 83 89 91 91 89 89 88 90 90 89 88 90 92 93 93 92 90 91 90 87 74 65 56 55 56 56 57 59 61 64 67 73 78 80 83
72 72 74 78 81 85 90 92 94 92 89 92 92 91 92 93 93 94 91 94 87 81 67 58 54 56 55 55 60 65 69 72 75 80 82 83 89 92
67 68 73 76 78 80 84 89 91 92 93 93 94 93 94 93 91 91 90 83 75 63 57 56 59 60 64 69 72 77 80 82 83 86 87 94 87 85
59 63 69 68 70 71 73 76 81 84 85 87 88 88 89 87 83 79 78 70 61 59 59 61 64 68 71 75 78 81 83 86 91 93 100 87 84 87
56 55 56 59 58 61 64 67 69 71 71 73 74 76 77 74 75 71 63 62 61 63 66 69 73 76 79 82 85 88 90 92 97 91 89 89 87 90
44 44 49 51 54 56 56 56 57 58 60 61 63 66 67 68 64 63 63 66 65 69 73 77 82 86 90 92 94 96 95 87 88 90 91 92 90 94
37 39 41 44 46 46 49 47 49 48 51 55 58 63 63 65 68 68 70 71 75 80 81 86 89 92 96 98 91 85 86 88 91 94 94 94 95 98
31 36 37 40 41 39 43 44 47 52 55 59 66 67 65 68 72 77 80 80 80 86 90 91 94 95 90 88 89 90 91 92 92 90 94 96 98 104
32 35 34 41 46 43 47 53 59 61 62 65 68 71 73 76 78 83 87 90 93 93 95 95 97 91 91 93 93 93 91 90 91 92 94 98 104 109
37 44 49 48 51 55 62 65 67 69 72 74 78 81 83 83 86 89 92 95 96 93 100 91 92 93 96 95 93 93 92 94 94 97 100 102 105 105
50 52 54 58 63 66 68 73 75 77 80 84 86 89 91 94 93 93 95 93 98 96 93 88 93 94 95 95 95 95 99 100 100 101 97 99 98 94
56 58 63 69 72 75 77 80 84 86 90 92 95 95 93 97 91 86 85 86 87 87 93 92 95 94 95 101 103 104 103 101 98 96 95 92 89 78
68 71 73 75 77 78 82 84 89 92 93 95 98 98 93 91 90 89 89 90 91 93 93 91 95 98 100 103 107 105 100 93 90 90 85 80 71 63
66 73 77 76 81 83 85 84 81 81 84 87 90 92 95 97 97 96 97 96 94 92 96 97 98 100 101 100 98 95 89 86 84 79 72 63 57 53
70 72 74 76 78 81 83 85 87 90 92 94 95 96 98 97 97 97 98 96 96 92 93 96 95 94 95 95 93 91 85 80 75 65 58 50 46 43
77 80 82 85 86 89 91 92 94 96 97 98 100 100 100 99 97 94 93 91 90 91 94 94 94 94 93 87 83 80 75 72 63 54 47 42 39 37
75 77 81 84 87 90 93 95 95 97 97 98 98 98 95 93 92 88 87 87 91 92 92 92 88 86 82 75 73 69 67 61 50 45 39 36 33 30
76 80 84 84 87 90 93 96 97 96 96 93 91 88 85 83 80 82 84 87 90 92 91 89 81 74 68 65 62 63 57 51 42 37 33 30 27 27
77 81 83 87 92 95 99 99 99 95 92 89 83 83 82 78 79 79 81 83 83 81 78 73 69 65 63 59 60 53 46 41 35 30 28 26 25 27
78 81 84 86 88 90 92 94 94 92 90 85 82 77 75 73 72 71 72 72 70 68 63 60 60 59 59 57 48 43 37 34 30 27 26 25 26 28
80 81 81 82 82 82 81 81 80 78 77 74 72 70 69 67 67 66 64 63 61 58 56 55 55 57 53 45 40 35 31 30 28 25 26 26 27 29
77 76 75 74 74 74 72 71 70 67 66 65 65 65 63 62 60 59 58 56 54 52 51 51 55 48 44 38 34 29 29 27 24 24 25 26 27 28
71 69 67 67 66 67 66 64 62 61 61 60 59 59 58 56 55 53 53 51 49 48 50 50 45 41 37 32 28 27 27 24 24 26 26 26 29 33

GFSNE_250_spd_132.txt.gz
Wind_Speed
89 89 87 84 81 81 81 82 86 82 75 77 81 83 87 90 93 93 93 93 94 92 92 92 91 91 88 87 76 64 57 53 52 50 53 55 59 62
87 84 83 83 82 84 87 84 81 78 77 77 86 80 78 80 87 91 90 91 94 92 90 89 87 89 80 68 63 59 57 55 54 56 60 66 69 73
79 81 78 74 77 79 80 79 80 77 75 74 77 76 76 76 80 84 85 88 86 83 80 80 77 72 66 63 61 60 59 59 64 70 73 75 77 78
65 66 64 66 68 69 73 71 71 70 70 69 68 68 69 69 72 72 73 71 72 73 72 70 66 67 65 65 62 59 64 67 71 73 77 80 83 86
54 56 57 58 60 61 58 58 61 61 60 59 60 61 62 62 63 65 67 66 66 67 65 66 66 65 65 64 63 66 70 76 80 82 87 89 90 82
42 41 41 44 46 48 49 51 54 54 54 54 54 55 55 54 54 55 57 59 61 65 66 65 67 69 68 71 73 78 80 82 85 89 91 89 87 84
34 34 34 36 39 42 43 45 47 47 46 46 49 51 52 52 52 58 63 65 67 69 68 68 73 75 79 82 86 88 89 89 90 90 91 89 87 88
27 28 27 29 34 37 38 38 38 36 45 48 51 53 52 56 65 63 65 68 71 77 79 82 84 82 85 90 91 93 94 95 97 94 90 88 91 93
25 27 29 32 32 33 37 44 45 48 50 55 59 58 65 71 72 73 75 75 78 83 84 85 91 93 94 98 98 99 98 96 96 93 94 94 95 98
29 31 37 40 42 46 48 49 50 57 59 63 67 69 71 76 79 79 83 85 87 91 93 93 98 101 100 100 97 93 93 94 95 95 97 99 101 102
39 41 42 46 50 54 56 60 64 65 69 72 75 77 80 83 86 88 91 91 95 97 101 98 101 102 103 98 94 92 92 94 97 100 104 104 105 106
51 54 58 60 62 64 69 71 74 77 80 81 85 88 91 93 94 95 97 98 104 105 108 104 102 96 93 99 98 97 99 101 102 103 105 107 109 104
56 58 62 66 69 74 78 81 84 88 90 92 93 93 96 98 101 102 102 100 97 96 98 99 100 102 100 97 102 101 102 103 106 107 105 103 98 96
57 60 63 67 71 74 78 80 83 85 88 90 92 95 97 98 100 100 101 102 102 102 105 105 102 101 100 100 99 101 102 101 100 97 95 92 90 82
55 58 62 65 69 74 78 81 83 86 89 92 95 97 99 101 103 104 105 105 107 105 102 99 95 95 95 95 98 97 99 95 93 91 89 85 76 69
58 58 59 67 73 72 75 79 84 86 90 93 96 98 100 102 102 101 102 101 97 94 91 88 86 86 89 89 89 92 92 88 86 83 77 68 62 60
63 67 68 70 71 72 76 79 82 86 90 94 98 100 99 99 98 94 89 87 84 79 78 75 80 81 81 84 83 82 81 75 73 65 61 58 55 49
74 76 78 78 77 77 81 83 85 88 91 93 96 96 97 95 91 87 82 78 73 70 69 72 73 73 74 72 70 69 66 63 59 52 53 50 45 40
79 81 81 80 81 84 84 83 84 85 85 85 83 82 81 78 77 75 72 69 66 65 64 64 63 63 63 62 59 56 55 52 47 49 43 40 37 34
81 83 81 82 84 81 80 80 79 78 76 74 71 70 69 69 67 65 63 61 59 58 57 56 56 55 53 51 49 46 44 46 43 39 36 34 31 29
82 81 81 80 77 74 73 72 70 69 69 67 65 63 62 61 60 59 57 55 53 53 52 51 49 48 47 46 42 42 44 39 35 33 29 28 27 27
81 79 80 76 71 68 67 66 66 65 65 63 61 58 56 55 53 51 51 50 50 48 47 45 44 43 41 42 44 41 35 33 30 27 26 26 26 28
79 81 76 71 65 63 63 64 63 61 59 56 53 51 51 50 48 48 47 46 43 42 41 41 40 40 43 44 37 32 30 28 26 24 25 26 27 27

GFSNE_250_spd_135.txt.gz
Wind_Speed
91 93 94 96 95 94 89 85 79 83 87 90 93 92 94 93 91 86 89 86 80 79 81 82 82 82 82 82 81 80 81 79 73 67 64 56 53 53
81 85 89 93 93 88 85 85 85 84 85 86 92 94 94 91 91 86 86 83 79 78 82 78 78 78 79 77 73 73 70 70 65 60 59 55 53 54
71 75 78 81 82 84 83 85 89 93 91 92 91 90 89 87 85 80 79 78 73 74 76 75 73 71 69 71 69 67 67 63 62 63 60 61 59 56
58 63 67 69 70 71 74 79 82 85 84 86 84 79 76 74 70 69 68 70 69 69 70 68 68 68 68 67 63 61 61 64 64 61 58 59 61 65
44 49 53 56 59 61 63 65 69 70 70 69 70 67 62 61 61 61 62 63 64 64 62 61 60 60 61 59 59 61 66 64 62 58 63 65 67 73
30 31 33 36 39 43 44 48 49 48 50 52 53 52 53 53 53 53 58 55 56 57 58 59 60 62 61 62 65 65 62 61 64 67 72 77 78 80
19 23 27 31 34 36 35 35 39 44 45 47 49 48 46 46 49 51 51 55 59 59 59 60 64 67 67 66 68 69 70 73 76 77 77 80 84 83
18 21 24 25 25 29 31 32 34 39 41 43 42 47 49 51 53 53 58 59 66 68 63 66 70 77 77 77 76 78 78 80 82 86 87 89 89 94
26 24 24 26 29 29 30 32 36 39 43 46 51 57 57 58 59 61 62 65 67 73 76 78 80 83 85 86 86 87 88 91 91 93 95 96 92 93
28 28 32 34 35 36 39 43 45 48 51 55 57 58 61 65 65 68 72 75 79 83 82 83 89 91 94 95 96 98 98 99 102 102 101 98 93 88
38 39 40 44 44 47 49 51 55 57 60 63 68 71 74 75 77 80 83 85 87 92 97 93 97 97 102 107 106 105 104 102 103 103 97 94 93 93
41 42 45 50 54 57 59 63 67 72 75 78 80 84 87 89 91 92 94 96 98 101 105 102 106 102 102 107 105 102 100 102 101 100 99 101 98 99
42 45 47 50 53 57 61 65 68 72 75 80 84 88 91 93 95 97 98 98 100 102 103 101 103 104 102 102 110 105 103 102 100 99 97 96 97 98
51 53 55 55 56 59 60 64 67 70 74 78 82 86 89 92 92 93 95 96 98 98 98 97 95 97 99 99 98 102 99 96 96 94 91 91 92 91
51 53 56 57 57 57 62 66 69 74 74 76 79 83 86 91 95 96 99 99 101 98 95 95 95 92 93 92 90 89 86 88 86 89 88 86 81 78
56 56 57 58 62 65 68 70 71 74 76 80 83 86 87 91 95 97 99 101 100 99 92 88 86 82 78 71 71 76 77 80 80 80 80 76 74 70
63 65 63 64 66 69 71 73 76 78 79 80 82 87 90 92 92 90 87 86 85 82 81 75 72 73 71 68 66 66 65 66 68 68 65 64 62 56
65 67 67 69 72 75 78 79 77 78 79 83 86 86 86 85 82 78 75 72 70 69 69 67 64 62 61 60 58 57 57 57 58 55 55 53 49 45
70 69 70 74 78 80 78 78 77 77 81 81 79 78 75 71 67 66 64 63 62 61 59 59 57 56 54 53 51 51 49 49 50 47 46 44 39 39
72 74 76 79 80 80 79 77 76 76 75 74 71 67 66 64 63 62 61 59 56 54 53 52 50 49 48 47 46 45 44 44 43 40 38 38 37 31
74 76 79 80 80 78 76 76 74 72 70 65 63 62 62 61 59 57 54 51 49 48 46 45 45 44 43 42 41 39 38 37 35 35 36 34 28 25
76 80 82 81 79 78 78 75 71 66 62 61 61 60 58 56 52 49 46 44 44 43 42 42 41 40 38 36 34 32 32 34 35 32 29 27 23 21
79 81 80 80 79 79 78 71 66 60 58 58 57 55 53 49 46 43 43 42 41 41 39 37 36 35 32 29 30 32 34 33 29 25 24 23 21 20

GFSNE_250_spd_138.txt.gz
Wind_Speed
70 73 76 79 83 88 90 98 99 103 103 94 87 87 91 90 89 89 90 91 89 90 90 89 90 88 81 78 74 72 72 72 71 66 62 60 59 57
57 61 66 71 77 82 88 91 94 99 100 100 95 93 92 94 95 93 93 93 92 91 95 91 86 82 75 68 70 68 68 68 65 63 60 58 56 54
47 49 54 58 63 68 76 83 88 86 85 86 90 92 93 93 97 97 96 95 91 90 89 81 74 70 66 65 66 65 63 62 59 57 56 54 52 54
35 38 42 47 51 56 62 68 73 78 78 79 80 77 79 86 90 89 87 84 79 73 68 65 64 63 61 61 61 59 57 56 56 56 55 53 57 60
26 29 32 36 40 44 50 55 60 64 67 70 70 73 75 75 74 71 66 65 60 58 58 57 59 57 57 58 60 57 56 57 55 53 55 57 61 65
18 19 21 25 29 33 36 39 41 45 49 53 55 55 55 56 55 53 53 54 55 53 54 55 57 57 58 55 55 55 56 55 58 59 60 64 63 63
20 20 20 19 20 22 24 27 30 34 36 39 43 45 46 49 50 50 48 50 52 52 55 58 58 58 61 60 62 64 63 64 63 64 65 65 67 70
23 24 24 24 24 22 24 25 26 28 32 35 37 40 42 45 47 51 51 55 63 64 63 68 65 67 69 69 67 72 70 68 70 72 76 78 80 80
31 29 28 25 26 28 30 31 34 36 38 41 43 46 48 49 54 56 57 62 68 73 68 72 73 75 76 75 76 77 76 77 80 82 84 85 87 88
31 34 35 35 37 38 39 42 43 44 46 49 51 54 54 57 61 64 67 69 73 76 75 77 83 83 87 89 90 89 87 87 89 91 93 94 96 96
30 33 35 38 40 42 44 47 51 54 56 58 62 65 68 70 73 76 78 81 83 88 89 88 92 94 99 102 102 100 100 100 98 98 97 97 97 95
35 36 38 41 44 44 46 49 51 52 56 60 64 68 70 72 75 79 83 87 89 91 94 92 94 95 94 102 102 98 97 96 97 97 97 98 93 91
39 40 41 41 42 45 48 52 54 55 58 63 67 69 73 76 79 83 86 87 90 91 92 94 96 97 94 91 102 99 93 89 87 87 86 87 87 87
44 46 46 46 46 48 51 52 54 57 60 62 65 69 73 78 81 85 85 85 87 92 97 97 96 98 98 99 98 101 98 96 89 84 81 82 81 82
50 51 52 52 52 53 55 57 60 62 64 66 69 71 73 74 76 79 81 84 88 89 89 89 90 91 90 87 85 87 85 86 77 76 75 76 76 76
54 55 56 57 59 60 60 62 63 64 66 69 72 74 76 77 79 81 84 87 88 89 83 78 77 75 74 70 68 70 70 71 70 68 67 67 68 69
56 58 61 62 62 63 65 66 65 66 68 70 73 75 76 78 81 83 85 85 82 79 73 66 64 64 62 62 60 60 61 60 60 59 58 57 56 55
59 61 66 65 66 66 67 68 69 69 69 70 73 74 75 77 79 76 73 70 67 64 62 61 57 54 55 55 55 54 54 53 52 51 48 48 48 46
63 66 69 68 69 71 72 73 72 72 72 72 72 72 73 71 69 65 63 62 58 55 54 53 50 49 48 50 50 49 48 47 45 44 44 44 40 37
67 68 70 71 72 74 74 73 74 74 73 73 71 69 68 64 60 60 58 57 54 51 50 49 46 45 45 44 44 44 43 42 40 39 39 35 32 30
69 70 71 72 74 76 77 75 75 74 74 72 68 65 61 59 57 56 54 52 50 47 45 44 43 42 42 41 40 39 38 37 35 34 32 28 25 28
70 71 72 75 76 76 76 75 74 74 73 72 66 62 57 56 54 50 49 47 45 44 42 40 40 39 38 36 35 35 34 32 31 28 27 27 28 27
69 70 73 74 76 77 76 74 74 73 72 70 63 57 54 53 50 47 45 44 42 41 39 37 36 36 35 34 32 31 30 29 29 30 30 27 23 20